Time,TemperatureF,DewpointF,PressureIn,WindDirection,WindDirectionDegrees,WindSpeedMPH,WindSpeedGustMPH,Humidity,HourlyPrecipIn,Conditions,Clouds,dailyrainin,SoftwareType,DateUTC
2013-09-12 00:01:00,66.8,60.4,29.99,WNW,294,1.2,2.3,80,0.00,RA,,0.00,WeatherDisplay:10.37,2013-09-12 05:01:00,
2013-09-12 00:02:00,66.9,60.5,29.99,NW,316,1.1,2.3,80,0.00,RA,,0.00,WeatherDisplay:10.37,2013-09-12 05:02:00,
2013-09-12 00:04:00,66.9,60.5,29.99,NW,316,0.3,2.3,80,0.00,RA,,0.00,WeatherDisplay:10.37,2013-09-12 05:04:00,
2013-09-12 00:06:00,66.8,60.4,29.99,North,6,0.1,1.2,80,0.00,RA,,0.00,WeatherDisplay:10.37,2013-09-12 05:06:00,
2013-09-12 00:07:00,66.7,60.3,29.98,WNW,289,0.1,1.2,80,0.00,RA,,0.00,WeatherDisplay:10.37,2013-09-12 05:07:00,
2013-09-12 00:09:00,66.7,60.3,29.98,WNW,292,0.0,1.2,80,0.00,RA,,0.00,WeatherDisplay:10.37,2013-09-12 05:09:00,
2013-09-12 00:12:00,66.5,60.1,29.98,WNW,285,1.9,4.6,80,0.00,CLR,,0.00,WeatherDisplay:10.37,2013-09-12 05:12:00,
2013-09-12 00:14:00,66.4,60.0,29.98,West,272,0.0,1.2,80,0.00,CLR,,0.00,WeatherDisplay:10.37,2013-09-12 05:14:00,
2013-09-12 00:17:00,66.3,59.9,29.98,NW,312,0.1,1.2,80,0.00,CLR,,0.00,WeatherDisplay:10.37,2013-09-12 05:17:00,
2013-09-12 00:18:00,66.3,59.9,29.98,NW,312,0.0,1.2,80,0.00,CLR,,0.00,WeatherDisplay:10.37,2013-09-12 05:18:00,
2013-09-12 00:19:00,66.1,59.7,29.98,NW,309,0.5,1.2,80,0.00,CLR,,0.00,WeatherDisplay:10.37,2013-09-12 05:19:00,
2013-09-12 00:22:00,66.1,59.7,29.98,NW,312,0.8,3.5,80,0.00,CLR,,0.00,WeatherDisplay:10.37,2013-09-12 05:22:00,
2013-09-12 00:23:00,66.1,59.7,29.98,WNW,302,1.1,3.5,80,0.00,CLR,,0.00,WeatherDisplay:10.37,2013-09-12 05:23:00,
2013-09-12 00:24:00,66.0,59.7,29.98,WNW,302,0.0,3.5,80,0.00,CLR,,0.00,WeatherDisplay:10.37,2013-09-12 05:24:00,
2013-09-12 00:28:00,65.8,59.5,29.98,WNW,298,0.0,0.0,80,0.00,CLR,,0.00,WeatherDisplay:10.37,2013-09-12 05:28:00,
2013-09-12 00:29:00,65.8,59.5,29.98,WNW,298,0.0,0.0,80,0.00,CLR,,0.00,WeatherDisplay:10.37,2013-09-12 05:29:00,
2013-09-12 00:30:00,65.7,59.4,29.98,WNW,298,0.0,0.0,80,0.00,CLR,,0.00,WeatherDisplay:10.37,2013-09-12 05:30:00,
2013-09-12 00:33:00,65.6,59.3,29.98,NW,316,0.0,0.0,80,0.00,CLR,,0.00,WeatherDisplay:10.37,2013-09-12 05:33:00,
2013-09-12 00:34:00,65.5,59.2,29.98,NW,316,0.1,0.3,80,0.00,CLR,,0.00,WeatherDisplay:10.37,2013-09-12 05:34:00,
2013-09-12 00:35:00,65.5,59.2,29.98,NW,316,0.1,0.0,80,0.00,CLR,,0.00,WeatherDisplay:10.37,2013-09-12 05:35:00,
2013-09-12 00:36:00,65.3,59.0,29.97,NW,316,0.0,0.0,80,0.00,CLR,,0.00,WeatherDisplay:10.37,2013-09-12 05:36:00,
2013-09-12 00:38:00,65.3,59.0,29.97,NW,316,0.0,0.0,80,0.00,CLR,,0.00,WeatherDisplay:10.37,2013-09-12 05:38:00,
2013-09-12 00:40:00,65.2,58.9,29.97,NW,316,0.0,0.0,80,0.00,CLR,,0.00,WeatherDisplay:10.37,2013-09-12 05:40:00,
2013-09-12 00:43:00,65.1,58.8,29.97,NW,316,0.0,0.0,80,0.00,CLR,,0.00,WeatherDisplay:10.37,2013-09-12 05:43:00,
2013-09-12 00:45:00,64.8,58.5,29.97,NW,316,0.0,0.0,80,0.00,CLR,,0.00,WeatherDisplay:10.37,2013-09-12 05:45:00,
2013-09-12 00:48:00,64.7,58.4,29.97,NW,316,0.0,0.0,80,0.00,CLR,,0.00,WeatherDisplay:10.37,2013-09-12 05:48:00,
2013-09-12 00:49:00,64.6,58.3,29.97,NW,316,0.0,0.0,80,0.00,CLR,,0.00,WeatherDisplay:10.37,2013-09-12 05:49:00,
2013-09-12 00:50:00,64.6,58.3,29.97,NW,316,0.0,0.0,80,0.00,CLR,,0.00,WeatherDisplay:10.37,2013-09-12 05:50:00,
2013-09-12 00:51:00,64.2,57.9,29.97,NW,316,0.0,0.0,80,0.00,CLR,,0.00,WeatherDisplay:10.37,2013-09-12 05:51:00,
2013-09-12 00:52:00,64.2,57.9,29.97,NW,316,0.0,0.0,80,0.00,CLR,,0.00,WeatherDisplay:10.37,2013-09-12 05:52:00,
2013-09-12 00:53:00,64.2,58.2,29.97,NW,316,0.0,0.0,81,0.00,CLR,,0.00,WeatherDisplay:10.37,2013-09-12 05:53:00,
2013-09-12 00:54:00,64.2,58.2,29.97,NW,316,0.0,0.0,81,0.00,CLR,,0.00,WeatherDisplay:10.37,2013-09-12 05:54:00,
2013-09-12 00:55:00,64.1,58.1,29.97,NW,316,0.0,0.0,81,0.00,CLR,,0.00,WeatherDisplay:10.37,2013-09-12 05:55:00,
2013-09-12 00:57:00,64.0,58.1,29.97,NW,316,0.0,0.0,81,0.00,CLR,,0.00,WeatherDisplay:10.37,2013-09-12 05:57:00,
2013-09-12 00:58:00,64.0,58.1,29.97,NW,316,0.0,0.0,81,0.00,CLR,,0.00,WeatherDisplay:10.37,2013-09-12 05:58:00,
2013-09-12 01:00:00,63.8,57.9,29.97,NW,316,0.0,0.0,81,0.00,CLR,,0.00,WeatherDisplay:10.37,2013-09-12 06:00:00,
2013-09-12 01:01:00,63.8,57.9,29.97,NW,316,0.0,0.0,81,0.00,CLR,,0.00,WeatherDisplay:10.37,2013-09-12 06:01:00,
2013-09-12 01:02:00,63.7,57.8,29.97,NW,316,0.0,0.0,81,0.00,CLR,,0.00,WeatherDisplay:10.37,2013-09-12 06:02:00,
2013-09-12 01:03:00,63.5,57.6,29.97,NW,316,0.0,0.0,81,0.00,CLR,,0.00,WeatherDisplay:10.37,2013-09-12 06:03:00,
2013-09-12 01:05:00,63.6,57.7,29.97,NW,316,0.0,0.0,81,0.00,CLR,,0.00,WeatherDisplay:10.37,2013-09-12 06:05:00,
2013-09-12 01:06:00,63.3,57.4,29.97,NW,316,0.0,0.0,81,0.00,CLR,,0.00,WeatherDisplay:10.37,2013-09-12 06:06:00,
2013-09-12 01:08:00,63.3,57.4,29.97,NW,316,0.0,0.0,81,0.00,CLR,,0.00,WeatherDisplay:10.37,2013-09-12 06:08:00,
2013-09-12 01:10:00,63.0,57.1,29.97,NW,316,0.0,0.0,81,0.00,CLR,,0.00,WeatherDisplay:10.37,2013-09-12 06:10:00,
2013-09-12 01:11:00,63.1,57.2,29.97,NW,316,0.0,0.0,81,0.00,CLR,,0.00,WeatherDisplay:10.37,2013-09-12 06:11:00,
2013-09-12 01:13:00,62.9,57.0,29.96,NW,316,0.0,0.0,81,0.00,CLR,,0.00,WeatherDisplay:10.37,2013-09-12 06:13:00,
2013-09-12 01:14:00,62.8,56.9,29.96,NW,316,0.0,0.0,81,0.00,CLR,,0.00,WeatherDisplay:10.37,2013-09-12 06:14:00,
2013-09-12 01:16:00,62.7,57.1,29.97,NW,316,0.0,0.0,82,0.00,CLR,,0.00,WeatherDisplay:10.37,2013-09-12 06:16:00,
2013-09-12 01:18:00,62.6,57.0,29.96,NW,316,0.0,0.0,82,0.00,CLR,,0.00,WeatherDisplay:10.37,2013-09-12 06:18:00,
2013-09-12 01:19:00,62.6,57.0,29.96,NW,316,0.0,0.0,82,0.00,CLR,,0.00,WeatherDisplay:10.37,2013-09-12 06:19:00,
2013-09-12 01:21:00,62.4,56.8,29.96,NW,316,0.0,0.0,82,0.00,CLR,,0.00,WeatherDisplay:10.37,2013-09-12 06:21:00,
2013-09-12 01:22:00,62.4,56.8,29.96,NW,316,0.0,0.0,82,0.00,CLR,,0.00,WeatherDisplay:10.37,2013-09-12 06:22:00,
2013-09-12 01:24:00,62.3,56.7,29.96,NW,316,0.0,0.0,82,0.00,CLR,,0.00,WeatherDisplay:10.37,2013-09-12 06:24:00,
2013-09-12 01:25:00,62.2,56.6,29.96,NW,316,0.0,0.0,82,0.00,CLR,,0.00,WeatherDisplay:10.37,2013-09-12 06:25:00,
2013-09-12 01:26:00,62.1,56.5,29.96,NW,316,0.0,0.0,82,0.00,CLR,,0.00,WeatherDisplay:10.37,2013-09-12 06:26:00,
2013-09-12 01:27:00,62.1,56.5,29.96,NW,316,0.0,0.0,82,0.00,CLR,,0.00,WeatherDisplay:10.37,2013-09-12 06:27:00,
2013-09-12 01:29:00,62.1,56.5,29.96,NW,316,0.0,0.0,82,0.00,CLR,,0.00,WeatherDisplay:10.37,2013-09-12 06:29:00,
2013-09-12 01:31:00,61.7,56.1,29.96,NW,316,0.0,0.0,82,0.00,CLR,,0.00,WeatherDisplay:10.37,2013-09-12 06:31:00,
2013-09-12 01:32:00,61.8,56.2,29.96,NW,316,0.0,0.0,82,0.00,CLR,,0.00,WeatherDisplay:10.37,2013-09-12 06:32:00,
2013-09-12 01:34:00,61.5,56.0,29.96,NW,316,0.0,0.0,82,0.00,CLR,,0.00,WeatherDisplay:10.37,2013-09-12 06:34:00,
2013-09-12 01:35:00,61.5,56.0,29.96,NW,316,0.0,0.0,82,0.00,CLR,,0.00,WeatherDisplay:10.37,2013-09-12 06:35:00,
2013-09-12 01:36:00,61.5,56.0,29.96,NW,316,0.0,0.0,82,0.00,CLR,,0.00,WeatherDisplay:10.37,2013-09-12 06:36:00,
2013-09-12 01:37:00,61.3,55.8,29.96,NW,316,0.0,0.0,82,0.00,CLR,,0.00,WeatherDisplay:10.37,2013-09-12 06:37:00,
2013-09-12 01:39:00,61.4,55.9,29.96,NW,316,0.0,0.0,82,0.00,CLR,,0.00,WeatherDisplay:10.37,2013-09-12 06:39:00,
2013-09-12 01:40:00,61.2,55.7,29.96,NW,316,0.0,0.0,82,0.00,CLR,,0.00,WeatherDisplay:10.37,2013-09-12 06:40:00,
2013-09-12 01:42:00,61.2,56.0,29.96,NW,316,0.0,0.0,83,0.00,CLR,,0.00,WeatherDisplay:10.37,2013-09-12 06:42:00,
2013-09-12 01:43:00,61.0,55.8,29.96,NW,316,0.0,0.0,83,0.00,CLR,,0.00,WeatherDisplay:10.37,2013-09-12 06:43:00,
2013-09-12 01:44:00,61.1,55.9,29.96,NW,316,0.0,0.0,83,0.00,CLR,,0.00,WeatherDisplay:10.37,2013-09-12 06:44:00,
2013-09-12 01:45:00,61.1,55.9,29.96,NW,316,0.0,0.0,83,0.00,CLR,,0.00,WeatherDisplay:10.37,2013-09-12 06:45:00,
2013-09-12 01:47:00,60.9,55.7,29.96,NW,316,0.0,0.0,83,0.00,CLR,,0.00,WeatherDisplay:10.37,2013-09-12 06:47:00,
2013-09-12 01:48:00,60.9,55.7,29.96,NW,316,0.0,0.0,83,0.00,CLR,,0.00,WeatherDisplay:10.37,2013-09-12 06:48:00,
2013-09-12 01:49:00,60.8,55.6,29.96,NW,316,0.0,0.0,83,0.00,CLR,,0.00,WeatherDisplay:10.37,2013-09-12 06:49:00,
2013-09-12 01:50:00,60.7,55.5,29.96,NW,316,0.0,0.0,83,0.00,CLR,,0.00,WeatherDisplay:10.37,2013-09-12 06:50:00,
2013-09-12 01:52:00,60.6,55.4,29.96,NW,316,0.0,0.0,83,0.00,CLR,,0.00,WeatherDisplay:10.37,2013-09-12 06:52:00,
2013-09-12 01:53:00,60.6,55.4,29.96,NW,316,0.0,0.0,83,0.00,CLR,,0.00,WeatherDisplay:10.37,2013-09-12 06:53:00,
2013-09-12 01:54:00,60.5,55.3,29.96,NW,316,0.0,0.0,83,0.00,CLR,,0.00,WeatherDisplay:10.37,2013-09-12 06:54:00,
2013-09-12 01:56:00,60.4,55.2,29.96,NW,316,0.0,0.0,83,0.00,CLR,,0.00,WeatherDisplay:10.37,2013-09-12 06:56:00,
2013-09-12 01:58:00,60.5,55.3,29.96,NW,316,0.0,0.0,83,0.00,CLR,,0.00,WeatherDisplay:10.37,2013-09-12 06:58:00,
2013-09-12 02:00:00,60.2,55.0,29.96,NW,316,0.0,0.0,83,0.00,CLR,,0.00,WeatherDisplay:10.37,2013-09-12 07:00:00,
2013-09-12 02:01:00,60.3,55.1,29.96,NW,316,0.0,0.0,83,0.00,CLR,,0.00,WeatherDisplay:10.37,2013-09-12 07:01:00,
2013-09-12 02:03:00,60.1,54.9,29.96,NW,316,0.0,0.0,83,0.00,CLR,,0.00,WeatherDisplay:10.37,2013-09-12 07:03:00,
2013-09-12 02:05:00,60.1,54.9,29.96,NW,316,0.0,0.0,83,0.00,CLR,,0.00,WeatherDisplay:10.37,2013-09-12 07:05:00,
2013-09-12 02:07:00,60.0,54.8,29.96,NW,316,0.0,0.0,83,0.00,CLR,,0.00,WeatherDisplay:10.37,2013-09-12 07:07:00,
2013-09-12 02:08:00,60.0,55.2,29.96,NW,316,0.0,0.0,84,0.00,CLR,,0.00,WeatherDisplay:10.37,2013-09-12 07:08:00,
2013-09-12 02:09:00,59.9,55.1,29.96,NW,316,0.0,0.0,84,0.00,CLR,,0.00,WeatherDisplay:10.37,2013-09-12 07:09:00,
2013-09-12 02:10:00,59.9,55.1,29.96,NW,316,0.0,0.0,84,0.00,CLR,,0.00,WeatherDisplay:10.37,2013-09-12 07:10:00,
2013-09-12 02:12:00,59.8,55.0,29.96,NW,316,0.0,0.0,84,0.00,CLR,,0.00,WeatherDisplay:10.37,2013-09-12 07:12:00,
2013-09-12 02:13:00,59.8,55.0,29.96,NW,316,0.0,0.0,84,0.00,CLR,,0.00,WeatherDisplay:10.37,2013-09-12 07:13:00,
2013-09-12 02:14:00,59.8,55.0,29.96,NW,316,0.0,0.0,84,0.00,CLR,,0.00,WeatherDisplay:10.37,2013-09-12 07:14:00,
2013-09-12 02:15:00,59.7,54.9,29.96,NW,316,0.0,0.0,84,0.00,CLR,,0.00,WeatherDisplay:10.37,2013-09-12 07:15:00,
2013-09-12 02:16:00,59.7,54.9,29.96,NW,316,0.0,0.0,84,0.00,CLR,,0.00,WeatherDisplay:10.37,2013-09-12 07:16:00,
2013-09-12 02:18:00,59.7,54.9,29.96,NW,316,0.0,0.0,84,0.00,CLR,,0.00,WeatherDisplay:10.37,2013-09-12 07:18:00,
2013-09-12 02:19:00,59.7,54.9,29.96,NW,316,0.0,0.0,84,0.00,CLR,,0.00,WeatherDisplay:10.37,2013-09-12 07:19:00,
2013-09-12 02:20:00,59.6,54.8,29.96,NW,316,0.0,0.0,84,0.00,CLR,,0.00,WeatherDisplay:10.37,2013-09-12 07:20:00,
2013-09-12 02:21:00,59.6,54.8,29.96,NW,316,0.0,0.0,84,0.00,CLR,,0.00,WeatherDisplay:10.37,2013-09-12 07:21:00,
2013-09-12 02:23:00,59.6,54.8,29.96,NW,316,0.0,0.0,84,0.00,CLR,,0.00,WeatherDisplay:10.37,2013-09-12 07:23:00,
2013-09-12 02:24:00,59.6,54.8,29.96,NW,316,0.0,0.0,84,0.00,CLR,,0.00,WeatherDisplay:10.37,2013-09-12 07:24:00,
2013-09-12 02:25:00,59.6,54.8,29.96,NW,316,0.0,0.0,84,0.00,CLR,,0.00,WeatherDisplay:10.37,2013-09-12 07:25:00,
2013-09-12 02:26:00,59.6,54.8,29.96,NW,316,0.0,0.0,84,0.00,CLR,,0.00,WeatherDisplay:10.37,2013-09-12 07:26:00,
2013-09-12 02:28:00,59.5,55.0,29.96,NW,316,0.0,0.0,85,0.00,CLR,,0.00,WeatherDisplay:10.37,2013-09-12 07:28:00,
2013-09-12 02:29:00,59.5,55.0,29.96,NW,316,0.0,0.0,85,0.00,CLR,,0.00,WeatherDisplay:10.37,2013-09-12 07:29:00,
2013-09-12 02:30:00,59.4,54.6,29.96,NW,316,0.0,0.0,84,0.00,CLR,,0.00,WeatherDisplay:10.37,2013-09-12 07:30:00,
2013-09-12 02:31:00,59.5,55.0,29.96,NW,316,0.0,0.0,85,0.00,CLR,,0.00,WeatherDisplay:10.37,2013-09-12 07:31:00,
2013-09-12 02:32:00,59.5,54.7,29.96,NW,316,0.0,0.0,84,0.00,CLR,,0.00,WeatherDisplay:10.37,2013-09-12 07:32:00,
2013-09-12 02:33:00,59.4,54.6,29.96,NW,316,0.0,0.0,84,0.00,CLR,,0.00,WeatherDisplay:10.37,2013-09-12 07:33:00,
2013-09-12 02:34:00,59.5,54.7,29.96,NW,316,0.0,0.0,84,0.00,CLR,,0.00,WeatherDisplay:10.37,2013-09-12 07:34:00,
2013-09-12 02:35:00,59.4,54.6,29.96,NW,316,0.0,0.0,84,0.00,CLR,,0.00,WeatherDisplay:10.37,2013-09-12 07:35:00,
2013-09-12 02:37:00,59.3,54.5,29.96,NW,316,0.0,0.0,84,0.00,CLR,,0.00,WeatherDisplay:10.37,2013-09-12 07:37:00,
2013-09-12 02:38:00,59.2,54.4,29.96,NW,316,0.0,0.0,84,0.00,CLR,,0.00,WeatherDisplay:10.37,2013-09-12 07:38:00,
2013-09-12 02:39:00,59.2,54.4,29.96,NW,316,0.0,0.0,84,0.00,CLR,,0.00,WeatherDisplay:10.37,2013-09-12 07:39:00,
2013-09-12 02:40:00,59.2,54.4,29.96,NW,316,0.0,0.0,84,0.00,CLR,,0.00,WeatherDisplay:10.37,2013-09-12 07:40:00,
2013-09-12 02:44:00,59.0,54.2,29.96,NW,316,0.0,0.0,84,0.00,CLR,,0.00,WeatherDisplay:10.37,2013-09-12 07:44:00,
2013-09-12 02:45:00,59.0,54.2,29.96,NW,316,0.0,0.0,84,0.00,CLR,,0.00,WeatherDisplay:10.37,2013-09-12 07:45:00,
2013-09-12 02:46:00,58.9,54.1,29.96,NW,316,0.0,0.0,84,0.00,CLR,,0.00,WeatherDisplay:10.37,2013-09-12 07:46:00,
2013-09-12 02:49:00,58.8,54.0,29.96,NW,316,0.0,0.0,84,0.00,CLR,,0.00,WeatherDisplay:10.37,2013-09-12 07:49:00,
2013-09-12 02:50:00,58.8,54.0,29.96,NW,316,0.0,0.0,84,0.00,CLR,,0.00,WeatherDisplay:10.37,2013-09-12 07:50:00,
2013-09-12 02:51:00,58.7,53.9,29.96,NW,316,0.0,0.0,84,0.00,CLR,,0.00,WeatherDisplay:10.37,2013-09-12 07:51:00,
2013-09-12 02:54:00,58.8,54.0,29.96,NW,316,0.0,0.0,84,0.00,CLR,,0.00,WeatherDisplay:10.37,2013-09-12 07:54:00,
2013-09-12 02:55:00,58.6,53.8,29.96,NW,316,0.0,0.0,84,0.00,CLR,,0.00,WeatherDisplay:10.37,2013-09-12 07:55:00,
2013-09-12 02:56:00,58.6,54.1,29.96,NW,316,0.0,0.0,85,0.00,CLR,,0.00,WeatherDisplay:10.37,2013-09-12 07:56:00,
2013-09-12 02:57:00,58.4,53.6,29.96,NW,316,0.0,0.0,84,0.00,CLR,,0.00,WeatherDisplay:10.37,2013-09-12 07:57:00,
2013-09-12 02:59:00,58.3,53.8,29.96,NW,316,0.0,0.0,85,0.00,CLR,,0.00,WeatherDisplay:10.37,2013-09-12 07:59:00,
2013-09-12 03:00:00,58.3,53.8,29.96,NW,316,0.0,0.0,85,0.00,CLR,,0.00,WeatherDisplay:10.37,2013-09-12 08:00:00,
2013-09-12 03:01:00,58.4,53.9,29.96,NW,316,0.0,0.0,85,0.00,CLR,,0.00,WeatherDisplay:10.37,2013-09-12 08:01:00,
2013-09-12 03:02:00,58.3,53.8,29.96,NW,316,0.0,0.0,85,0.00,CLR,,0.00,WeatherDisplay:10.37,2013-09-12 08:02:00,
2013-09-12 03:04:00,58.2,53.7,29.96,NW,316,0.0,0.0,85,0.00,CLR,,0.00,WeatherDisplay:10.37,2013-09-12 08:04:00,
2013-09-12 03:06:00,58.2,53.7,29.96,NW,316,0.0,0.0,85,0.00,CLR,,0.00,WeatherDisplay:10.37,2013-09-12 08:06:00,
2013-09-12 03:07:00,58.0,53.5,29.96,NW,316,0.0,0.0,85,0.00,CLR,,0.00,WeatherDisplay:10.37,2013-09-12 08:07:00,
2013-09-12 03:09:00,58.1,53.6,29.96,NW,316,0.0,0.0,85,0.00,CLR,,0.00,WeatherDisplay:10.37,2013-09-12 08:09:00,
2013-09-12 03:11:00,58.0,53.5,29.96,NW,316,0.0,0.0,85,0.00,CLR,,0.00,WeatherDisplay:10.37,2013-09-12 08:11:00,
2013-09-12 03:12:00,58.0,53.5,29.96,NW,316,0.0,0.0,85,0.00,CLR,,0.00,WeatherDisplay:10.37,2013-09-12 08:12:00,
2013-09-12 03:13:00,57.9,53.4,29.96,NW,316,0.0,0.0,85,0.00,CLR,,0.00,WeatherDisplay:10.37,2013-09-12 08:13:00,
2013-09-12 03:15:00,57.9,53.4,29.96,NW,316,0.0,0.0,85,0.00,CLR,,0.00,WeatherDisplay:10.37,2013-09-12 08:15:00,
2013-09-12 03:16:00,57.9,53.4,29.96,NW,316,0.0,0.0,85,0.00,CLR,,0.00,WeatherDisplay:10.37,2013-09-12 08:16:00,
2013-09-12 03:17:00,57.8,53.3,29.96,NW,316,0.0,0.0,85,0.00,CLR,,0.00,WeatherDisplay:10.37,2013-09-12 08:17:00,
2013-09-12 03:18:00,57.9,53.4,29.96,NW,316,0.0,0.0,85,0.00,CLR,,0.00,WeatherDisplay:10.37,2013-09-12 08:18:00,
2013-09-12 03:20:00,57.8,53.3,29.96,NW,316,0.0,0.0,85,0.00,CLR,,0.00,WeatherDisplay:10.37,2013-09-12 08:20:00,
2013-09-12 03:22:00,57.7,53.2,29.96,NW,316,0.0,0.0,85,0.00,CLR,,0.00,WeatherDisplay:10.37,2013-09-12 08:22:00,
2013-09-12 03:23:00,57.7,53.2,29.96,NW,316,0.0,0.0,85,0.00,CLR,,0.00,WeatherDisplay:10.37,2013-09-12 08:23:00,
2013-09-12 03:24:00,57.8,53.3,29.96,NW,316,0.0,0.0,85,0.00,CLR,,0.00,WeatherDisplay:10.37,2013-09-12 08:24:00,
2013-09-12 03:25:00,57.7,53.2,29.96,NW,316,0.0,0.0,85,0.00,CLR,,0.00,WeatherDisplay:10.37,2013-09-12 08:25:00,
2013-09-12 03:27:00,57.6,53.1,29.96,NW,316,0.0,0.0,85,0.00,CLR,,0.00,WeatherDisplay:10.37,2013-09-12 08:27:00,
2013-09-12 03:28:00,57.6,53.1,29.96,NW,316,0.0,0.0,85,0.00,CLR,,0.00,WeatherDisplay:10.37,2013-09-12 08:28:00,
2013-09-12 03:29:00,57.6,53.1,29.96,NW,316,0.0,0.0,85,0.00,CLR,,0.00,WeatherDisplay:10.37,2013-09-12 08:29:00,
2013-09-12 03:30:00,57.6,53.1,29.96,NW,316,0.0,0.0,85,0.00,CLR,,0.00,WeatherDisplay:10.37,2013-09-12 08:30:00,
2013-09-12 03:32:00,57.4,52.9,29.96,NW,316,0.0,0.0,85,0.00,CLR,,0.00,WeatherDisplay:10.37,2013-09-12 08:32:00,
2013-09-12 03:33:00,57.4,52.9,29.96,NW,316,0.0,0.0,85,0.00,CLR,,0.00,WeatherDisplay:10.37,2013-09-12 08:33:00,
2013-09-12 03:34:00,57.4,52.9,29.96,NW,316,0.0,0.0,85,0.00,CLR,,0.00,WeatherDisplay:10.37,2013-09-12 08:34:00,
2013-09-12 03:35:00,57.4,52.9,29.96,NW,316,0.0,0.0,85,0.00,CLR,,0.00,WeatherDisplay:10.37,2013-09-12 08:35:00,
2013-09-12 03:37:00,57.4,52.9,29.96,NW,316,0.0,0.0,85,0.00,CLR,,0.00,WeatherDisplay:10.37,2013-09-12 08:37:00,
2013-09-12 03:38:00,57.3,52.8,29.96,NW,316,0.0,0.0,85,0.00,CLR,,0.00,WeatherDisplay:10.37,2013-09-12 08:38:00,
2013-09-12 03:39:00,57.3,52.8,29.96,NW,316,0.0,0.0,85,0.00,CLR,,0.00,WeatherDisplay:10.37,2013-09-12 08:39:00,
2013-09-12 03:40:00,57.3,52.8,29.96,NW,316,0.0,0.0,85,0.00,CLR,,0.00,WeatherDisplay:10.37,2013-09-12 08:40:00,
2013-09-12 03:42:00,57.2,52.7,29.96,NW,316,0.0,0.0,85,0.00,CLR,,0.00,WeatherDisplay:10.37,2013-09-12 08:42:00,
2013-09-12 03:43:00,57.2,52.7,29.96,NW,316,0.0,0.0,85,0.00,CLR,,0.00,WeatherDisplay:10.37,2013-09-12 08:43:00,
2013-09-12 03:44:00,57.2,52.7,29.96,NW,316,0.0,0.0,85,0.00,CLR,,0.00,WeatherDisplay:10.37,2013-09-12 08:44:00,
2013-09-12 03:45:00,57.2,52.7,29.96,NW,316,0.0,0.0,85,0.00,CLR,,0.00,WeatherDisplay:10.37,2013-09-12 08:45:00,
2013-09-12 03:47:00,57.1,52.6,29.96,NW,316,0.0,0.0,85,0.00,CLR,,0.00,WeatherDisplay:10.37,2013-09-12 08:47:00,
2013-09-12 03:49:00,57.1,53.0,29.96,NW,316,0.0,0.0,86,0.00,CLR,,0.00,WeatherDisplay:10.37,2013-09-12 08:49:00,
2013-09-12 03:50:00,57.0,52.9,29.96,NW,316,0.0,0.0,86,0.00,CLR,,0.00,WeatherDisplay:10.37,2013-09-12 08:50:00,
2013-09-12 03:53:00,57.0,52.9,29.96,NW,316,0.0,0.0,86,0.00,CLR,,0.00,WeatherDisplay:10.37,2013-09-12 08:53:00,
2013-09-12 03:54:00,56.9,52.8,29.96,NW,316,0.0,0.0,86,0.00,CLR,,0.00,WeatherDisplay:10.37,2013-09-12 08:54:00,
2013-09-12 03:55:00,57.0,52.9,29.96,NW,316,0.0,0.0,86,0.00,CLR,,0.00,WeatherDisplay:10.37,2013-09-12 08:55:00,
2013-09-12 03:56:00,56.9,52.8,29.96,NW,316,0.0,0.0,86,0.00,CLR,,0.00,WeatherDisplay:10.37,2013-09-12 08:56:00,
2013-09-12 03:58:00,56.9,52.8,29.96,NW,316,0.0,0.0,86,0.00,CLR,,0.00,WeatherDisplay:10.37,2013-09-12 08:58:00,
2013-09-12 04:00:00,56.8,52.7,29.96,NW,316,0.0,0.0,86,0.00,CLR,,0.00,WeatherDisplay:10.37,2013-09-12 09:00:00,
2013-09-12 04:01:00,56.8,52.7,29.96,NW,316,0.0,0.0,86,0.00,CLR,,0.00,WeatherDisplay:10.37,2013-09-12 09:01:00,
2013-09-12 04:03:00,56.7,52.6,29.96,NW,316,0.0,0.0,86,0.00,CLR,,0.00,WeatherDisplay:10.37,2013-09-12 09:03:00,
2013-09-12 04:05:00,56.6,52.5,29.96,NW,316,0.0,0.0,86,0.00,CLR,,0.00,WeatherDisplay:10.37,2013-09-12 09:05:00,
2013-09-12 04:06:00,56.7,52.6,29.96,NW,316,0.0,0.0,86,0.00,CLR,,0.00,WeatherDisplay:10.37,2013-09-12 09:06:00,
2013-09-12 04:07:00,56.7,52.6,29.96,NW,316,0.0,0.0,86,0.00,CLR,,0.00,WeatherDisplay:10.37,2013-09-12 09:07:00,
2013-09-12 04:08:00,56.6,52.5,29.96,NW,316,0.0,0.0,86,0.00,CLR,,0.00,WeatherDisplay:10.37,2013-09-12 09:08:00,
2013-09-12 04:10:00,56.5,52.4,29.96,NW,316,0.0,0.0,86,0.00,CLR,,0.00,WeatherDisplay:10.37,2013-09-12 09:10:00,
2013-09-12 04:11:00,56.5,52.4,29.96,NW,316,0.0,0.0,86,0.00,CLR,,0.00,WeatherDisplay:10.37,2013-09-12 09:11:00,
2013-09-12 04:12:00,56.4,52.3,29.96,NW,316,0.0,0.0,86,0.00,CLR,,0.00,WeatherDisplay:10.37,2013-09-12 09:12:00,
2013-09-12 04:13:00,56.5,52.4,29.96,NW,316,0.0,0.0,86,0.00,CLR,,0.00,WeatherDisplay:10.37,2013-09-12 09:13:00,
2013-09-12 04:16:00,56.4,52.3,29.96,NW,316,0.0,0.0,86,0.00,CLR,,0.00,WeatherDisplay:10.37,2013-09-12 09:16:00,
2013-09-12 04:17:00,56.4,52.3,29.96,NW,316,0.0,0.0,86,0.00,CLR,,0.00,WeatherDisplay:10.37,2013-09-12 09:17:00,
2013-09-12 04:18:00,56.3,52.2,29.96,NW,316,0.0,0.0,86,0.00,CLR,,0.00,WeatherDisplay:10.37,2013-09-12 09:18:00,
2013-09-12 04:21:00,56.3,52.2,29.96,NW,316,0.0,0.0,86,0.00,CLR,,0.00,WeatherDisplay:10.37,2013-09-12 09:21:00,
2013-09-12 04:22:00,56.2,52.1,29.96,NW,316,0.0,0.0,86,0.00,CLR,,0.00,WeatherDisplay:10.37,2013-09-12 09:22:00,
2013-09-12 04:23:00,56.2,52.1,29.96,NW,316,0.0,0.0,86,0.00,CLR,,0.00,WeatherDisplay:10.37,2013-09-12 09:23:00,
2013-09-12 04:26:00,56.1,52.0,29.96,NW,316,0.0,0.0,86,0.00,CLR,,0.00,WeatherDisplay:10.37,2013-09-12 09:26:00,
2013-09-12 04:28:00,56.1,52.0,29.96,NW,316,0.0,0.0,86,0.00,CLR,,0.00,WeatherDisplay:10.37,2013-09-12 09:28:00,
2013-09-12 04:29:00,56.1,52.0,29.96,NW,316,0.0,0.0,86,0.00,CLR,,0.00,WeatherDisplay:10.37,2013-09-12 09:29:00,
2013-09-12 04:31:00,56.0,51.9,29.96,NW,316,0.0,0.0,86,0.00,CLR,,0.00,WeatherDisplay:10.37,2013-09-12 09:31:00,
2013-09-12 04:33:00,56.0,51.9,29.95,NW,316,0.0,0.0,86,0.00,CLR,,0.00,WeatherDisplay:10.37,2013-09-12 09:33:00,
2013-09-12 04:34:00,55.9,51.8,29.95,NW,316,0.0,0.0,86,0.00,CLR,,0.00,WeatherDisplay:10.37,2013-09-12 09:34:00,
2013-09-12 04:35:00,56.0,51.9,29.95,NW,316,0.0,0.0,86,0.00,CLR,,0.00,WeatherDisplay:10.37,2013-09-12 09:35:00,
2013-09-12 04:36:00,55.9,51.8,29.96,NW,316,0.0,0.0,86,0.00,CLR,,0.00,WeatherDisplay:10.37,2013-09-12 09:36:00,
2013-09-12 04:38:00,55.9,51.8,29.95,NW,316,0.0,0.0,86,0.00,CLR,,0.00,WeatherDisplay:10.37,2013-09-12 09:38:00,
2013-09-12 04:39:00,55.9,51.8,29.95,NW,316,0.0,0.0,86,0.00,CLR,,0.00,WeatherDisplay:10.37,2013-09-12 09:39:00,
2013-09-12 04:40:00,55.9,51.8,29.95,NW,316,0.0,0.0,86,0.00,CLR,,0.00,WeatherDisplay:10.37,2013-09-12 09:40:00,
2013-09-12 04:42:00,55.9,51.8,29.95,NW,316,0.0,0.0,86,0.00,CLR,,0.00,WeatherDisplay:10.37,2013-09-12 09:42:00,
2013-09-12 04:43:00,55.9,51.8,29.96,NW,316,0.0,0.0,86,0.00,CLR,,0.00,WeatherDisplay:10.37,2013-09-12 09:43:00,
2013-09-12 04:44:00,55.9,51.8,29.95,NW,316,0.0,0.0,86,0.00,CLR,,0.00,WeatherDisplay:10.37,2013-09-12 09:44:00,
2013-09-12 04:45:00,55.8,52.0,29.96,NW,316,0.0,0.0,87,0.00,CLR,,0.00,WeatherDisplay:10.37,2013-09-12 09:45:00,
2013-09-12 04:47:00,55.8,52.0,29.95,NW,316,0.0,0.0,87,0.00,CLR,,0.00,WeatherDisplay:10.37,2013-09-12 09:47:00,
2013-09-12 04:48:00,55.9,52.1,29.95,NW,316,0.0,0.0,87,0.00,CLR,,0.00,WeatherDisplay:10.37,2013-09-12 09:48:00,
2013-09-12 04:49:00,55.9,52.1,29.95,NW,316,0.0,0.0,87,0.00,CLR,,0.00,WeatherDisplay:10.37,2013-09-12 09:49:00,
2013-09-12 04:50:00,55.8,52.0,29.95,NW,316,0.0,0.0,87,0.00,CLR,,0.00,WeatherDisplay:10.37,2013-09-12 09:50:00,
2013-09-12 04:52:00,55.8,52.0,29.95,NW,316,0.0,0.0,87,0.00,CLR,,0.00,WeatherDisplay:10.37,2013-09-12 09:52:00,
2013-09-12 04:53:00,55.8,52.0,29.95,NW,316,0.0,0.0,87,0.00,CLR,,0.00,WeatherDisplay:10.37,2013-09-12 09:53:00,
2013-09-12 04:54:00,55.8,52.0,29.95,NW,316,0.0,0.0,87,0.00,CLR,,0.00,WeatherDisplay:10.37,2013-09-12 09:54:00,
2013-09-12 04:55:00,55.8,52.0,29.95,NW,316,0.0,0.0,87,0.00,CLR,,0.00,WeatherDisplay:10.37,2013-09-12 09:55:00,
2013-09-12 04:57:00,55.7,51.9,29.95,NW,316,0.0,0.0,87,0.00,CLR,,0.00,WeatherDisplay:10.37,2013-09-12 09:57:00,
2013-09-12 04:58:00,55.8,52.0,29.95,NW,316,0.0,0.0,87,0.00,CLR,,0.00,WeatherDisplay:10.37,2013-09-12 09:58:00,
2013-09-12 04:59:00,55.8,52.0,29.95,NW,316,0.0,0.0,87,0.00,CLR,,0.00,WeatherDisplay:10.37,2013-09-12 09:59:00,
2013-09-12 05:01:00,55.8,52.0,29.95,NW,316,0.0,0.0,87,0.00,CLR,,0.00,WeatherDisplay:10.37,2013-09-12 10:01:00,
2013-09-12 05:02:00,55.7,51.9,29.95,NW,316,0.0,0.0,87,0.00,CLR,,0.00,WeatherDisplay:10.37,2013-09-12 10:02:00,
2013-09-12 05:04:00,55.7,51.9,29.95,NW,316,0.0,0.0,87,0.00,CLR,,0.00,WeatherDisplay:10.37,2013-09-12 10:04:00,
2013-09-12 05:07:00,55.7,51.9,29.96,NW,316,0.0,0.0,87,0.00,CLR,,0.00,WeatherDisplay:10.37,2013-09-12 10:07:00,
2013-09-12 05:08:00,55.7,51.9,29.96,NW,316,0.0,0.0,87,0.00,CLR,,0.00,WeatherDisplay:10.37,2013-09-12 10:08:00,
2013-09-12 05:09:00,55.6,51.8,29.96,NW,316,0.0,0.0,87,0.00,CLR,,0.00,WeatherDisplay:10.37,2013-09-12 10:09:00,
2013-09-12 05:13:00,55.6,51.8,29.96,NW,316,0.0,0.0,87,0.00,CLR,,0.00,WeatherDisplay:10.37,2013-09-12 10:13:00,
2013-09-12 05:14:00,55.6,51.8,29.96,NW,316,0.0,0.0,87,0.00,CLR,,0.00,WeatherDisplay:10.37,2013-09-12 10:14:00,
2013-09-12 05:18:00,55.5,51.7,29.96,NW,316,0.0,0.0,87,0.00,CLR,,0.00,WeatherDisplay:10.37,2013-09-12 10:18:00,
2013-09-12 05:19:00,55.5,51.7,29.96,NW,316,0.0,0.0,87,0.00,CLR,,0.00,WeatherDisplay:10.37,2013-09-12 10:19:00,
2013-09-12 05:20:00,55.5,51.7,29.96,NW,316,0.0,0.0,87,0.00,CLR,,0.00,WeatherDisplay:10.37,2013-09-12 10:20:00,
2013-09-12 05:23:00,55.4,51.6,29.96,NW,316,0.0,0.0,87,0.00,CLR,,0.00,WeatherDisplay:10.37,2013-09-12 10:23:00,
2013-09-12 05:24:00,55.4,51.6,29.96,NW,316,0.0,0.0,87,0.00,CLR,,0.00,WeatherDisplay:10.37,2013-09-12 10:24:00,
2013-09-12 05:25:00,55.4,51.6,29.96,NW,316,0.0,0.0,87,0.00,CLR,,0.00,WeatherDisplay:10.37,2013-09-12 10:25:00,
2013-09-12 05:29:00,55.4,51.6,29.96,NW,316,0.0,0.0,87,0.00,CLR,,0.00,WeatherDisplay:10.37,2013-09-12 10:29:00,
2013-09-12 05:30:00,55.3,51.5,29.96,NW,316,0.0,0.0,87,0.00,CLR,,0.00,WeatherDisplay:10.37,2013-09-12 10:30:00,
2013-09-12 05:31:00,55.3,51.5,29.96,NW,316,0.0,0.0,87,0.00,CLR,,0.00,WeatherDisplay:10.37,2013-09-12 10:31:00,
2013-09-12 05:34:00,55.3,51.8,29.96,WSW,257,0.7,2.2,88,0.00,CLR,,0.00,WeatherDisplay:10.37,2013-09-12 10:34:00,
2013-09-12 05:35:00,55.4,51.9,29.96,SW,222,0.8,3.5,88,0.00,CLR,,0.00,WeatherDisplay:10.37,2013-09-12 10:35:00,
2013-09-12 05:36:00,55.4,51.9,29.96,SW,222,0.0,0.0,88,0.00,CLR,,0.00,WeatherDisplay:10.37,2013-09-12 10:36:00,
2013-09-12 05:39:00,55.5,52.0,29.96,SW,222,0.0,0.0,88,0.00,CLR,,0.00,WeatherDisplay:10.37,2013-09-12 10:39:00,
2013-09-12 05:40:00,55.5,52.0,29.96,SW,222,0.0,0.0,88,0.00,CLR,,0.00,WeatherDisplay:10.37,2013-09-12 10:40:00,
2013-09-12 05:41:00,55.5,52.0,29.96,West,267,0.1,1.1,88,0.00,CLR,,0.00,WeatherDisplay:10.37,2013-09-12 10:41:00,
2013-09-12 05:45:00,55.6,52.1,29.96,West,267,0.0,0.0,88,0.00,CLR,,0.00,WeatherDisplay:10.37,2013-09-12 10:45:00,
2013-09-12 05:46:00,55.6,52.1,29.96,West,267,0.0,0.0,88,0.00,CLR,,0.00,WeatherDisplay:10.37,2013-09-12 10:46:00,
2013-09-12 05:47:00,55.7,52.2,29.96,West,267,0.0,0.0,88,0.00,CLR,,0.00,WeatherDisplay:10.37,2013-09-12 10:47:00,
2013-09-12 05:50:00,55.7,52.2,29.96,West,267,0.0,0.0,88,0.00,CLR,,0.00,WeatherDisplay:10.37,2013-09-12 10:50:00,
2013-09-12 05:51:00,55.8,52.3,29.96,West,267,0.0,0.0,88,0.00,CLR,,0.00,WeatherDisplay:10.37,2013-09-12 10:51:00,
2013-09-12 05:53:00,55.8,52.3,29.96,West,267,0.0,0.0,88,0.00,CLR,,0.00,WeatherDisplay:10.37,2013-09-12 10:53:00,
2013-09-12 05:55:00,55.8,52.3,29.96,West,267,0.0,0.0,88,0.00,CLR,,0.00,WeatherDisplay:10.37,2013-09-12 10:55:00,
2013-09-12 05:56:00,55.8,52.3,29.96,West,267,0.0,0.0,88,0.00,CLR,,0.00,WeatherDisplay:10.37,2013-09-12 10:56:00,
2013-09-12 05:58:00,55.8,52.3,29.96,West,267,0.0,0.0,88,0.00,CLR,,0.00,WeatherDisplay:10.37,2013-09-12 10:58:00,
2013-09-12 05:59:00,55.8,52.3,29.96,West,267,0.0,0.0,88,0.00,CLR,,0.00,WeatherDisplay:10.37,2013-09-12 10:59:00,
2013-09-12 06:00:00,55.8,52.3,29.96,West,267,0.0,0.0,88,0.00,CLR,,0.00,WeatherDisplay:10.37,2013-09-12 11:00:00,
2013-09-12 06:01:00,55.9,52.4,29.96,West,267,0.0,0.0,88,0.00,CLR,,0.00,WeatherDisplay:10.37,2013-09-12 11:01:00,
2013-09-12 06:02:00,55.9,52.4,29.96,West,267,0.0,0.0,88,0.00,CLR,,0.00,WeatherDisplay:10.37,2013-09-12 11:02:00,
2013-09-12 06:04:00,55.9,52.4,29.96,West,267,0.0,0.0,88,0.00,CLR,,0.00,WeatherDisplay:10.37,2013-09-12 11:04:00,
2013-09-12 06:05:00,55.9,52.4,29.96,West,267,0.0,0.0,88,0.00,CLR,,0.00,WeatherDisplay:10.37,2013-09-12 11:05:00,
2013-09-12 06:06:00,55.9,52.4,29.96,West,267,0.0,0.0,88,0.00,CLR,,0.00,WeatherDisplay:10.37,2013-09-12 11:06:00,
2013-09-12 06:08:00,56.0,52.5,29.96,West,267,0.0,0.0,88,0.00,CLR,,0.00,WeatherDisplay:10.37,2013-09-12 11:08:00,
2013-09-12 06:09:00,56.0,52.5,29.96,West,267,0.0,0.0,88,0.00,CLR,,0.00,WeatherDisplay:10.37,2013-09-12 11:09:00,
2013-09-12 06:11:00,55.9,52.4,29.96,West,267,0.0,0.0,88,0.00,CLR,,0.00,WeatherDisplay:10.37,2013-09-12 11:11:00,
2013-09-12 06:12:00,55.9,52.4,29.96,West,267,0.0,0.0,88,0.00,CLR,,0.00,WeatherDisplay:10.37,2013-09-12 11:12:00,
2013-09-12 06:13:00,55.9,52.4,29.96,West,267,0.0,0.0,88,0.00,CLR,,0.00,WeatherDisplay:10.37,2013-09-12 11:13:00,
2013-09-12 06:15:00,55.9,52.4,29.96,WSW,258,0.4,1.0,88,0.00,CLR,,0.00,WeatherDisplay:10.37,2013-09-12 11:15:00,
2013-09-12 06:16:00,55.9,52.7,29.96,West,281,0.2,2.3,89,0.00,CLR,,0.00,WeatherDisplay:10.37,2013-09-12 11:16:00,
2013-09-12 06:17:00,55.9,52.7,29.96,West,281,0.0,0.0,89,0.00,CLR,,0.00,WeatherDisplay:10.37,2013-09-12 11:17:00,
2013-09-12 06:19:00,55.9,52.7,29.97,WSW,246,0.0,0.0,89,0.00,CLR,,0.00,WeatherDisplay:10.37,2013-09-12 11:19:00,
2013-09-12 06:20:00,56.0,52.8,29.97,WSW,246,0.0,0.0,89,0.00,CLR,,0.00,WeatherDisplay:10.37,2013-09-12 11:20:00,
2013-09-12 06:21:00,55.9,52.7,29.96,WSW,246,0.0,0.0,89,0.00,CLR,,0.00,WeatherDisplay:10.37,2013-09-12 11:21:00,
2013-09-12 06:22:00,56.1,52.9,29.96,WSW,246,0.0,0.0,89,0.00,CLR,,0.00,WeatherDisplay:10.37,2013-09-12 11:22:00,
2013-09-12 06:26:00,56.2,53.0,29.96,WSW,246,0.0,0.0,89,0.00,CLR,,0.00,WeatherDisplay:10.37,2013-09-12 11:26:00,
2013-09-12 06:27:00,56.2,53.0,29.97,WSW,246,0.0,0.0,89,0.00,CLR,,0.00,WeatherDisplay:10.37,2013-09-12 11:27:00,
2013-09-12 06:31:00,56.3,53.1,29.97,WSW,246,0.0,0.0,89,0.00,CLR,,0.00,WeatherDisplay:10.37,2013-09-12 11:31:00,
2013-09-12 06:32:00,56.3,53.1,29.97,WSW,246,0.0,0.0,89,0.00,CLR,,0.00,WeatherDisplay:10.37,2013-09-12 11:32:00,
2013-09-12 06:33:00,56.4,53.2,29.97,WSW,246,0.0,0.0,89,0.00,CLR,,0.00,WeatherDisplay:10.37,2013-09-12 11:33:00,
2013-09-12 06:36:00,56.4,53.2,29.97,NNW,328,0.8,1.9,89,0.00,CLR,,0.00,WeatherDisplay:10.37,2013-09-12 11:36:00,
2013-09-12 06:37:00,56.6,53.4,29.97,NW,323,0.8,3.5,89,0.00,CLR,,0.00,WeatherDisplay:10.37,2013-09-12 11:37:00,
2013-09-12 06:38:00,56.5,53.3,29.97,NW,323,0.0,0.0,89,0.00,CLR,,0.00,WeatherDisplay:10.37,2013-09-12 11:38:00,
2013-09-12 06:41:00,56.7,53.8,29.97,NW,306,0.0,0.0,90,0.00,CLR,,0.00,WeatherDisplay:10.37,2013-09-12 11:41:00,
2013-09-12 06:42:00,56.8,53.9,29.97,SW,232,0.5,2.7,90,0.00,CLR,,0.00,WeatherDisplay:10.37,2013-09-12 11:42:00,
2013-09-12 06:43:00,56.8,53.9,29.97,NNW,347,0.9,2.3,90,0.00,CLR,,0.00,WeatherDisplay:10.37,2013-09-12 11:43:00,
2013-09-12 06:46:00,57.1,54.2,29.97,WNW,284,0.6,1.2,90,0.00,CLR,,0.00,WeatherDisplay:10.37,2013-09-12 11:46:00,
2013-09-12 06:47:00,57.1,54.2,29.97,WNW,284,0.1,1.2,90,0.00,CLR,,0.00,WeatherDisplay:10.37,2013-09-12 11:47:00,
2013-09-12 06:48:00,57.1,54.2,29.97,WNW,284,0.0,1.2,90,0.00,CLR,,0.00,WeatherDisplay:10.37,2013-09-12 11:48:00,
2013-09-12 06:52:00,57.3,54.4,29.97,South,184,0.0,0.0,90,0.00,CLR,,0.00,WeatherDisplay:10.37,2013-09-12 11:52:00,
2013-09-12 06:53:00,57.3,54.4,29.97,South,184,0.0,0.0,90,0.00,CLR,,0.00,WeatherDisplay:10.37,2013-09-12 11:53:00,
2013-09-12 06:57:00,57.5,54.6,29.98,South,184,0.0,0.0,90,0.00,CLR,,0.00,WeatherDisplay:10.37,2013-09-12 11:57:00,
2013-09-12 06:58:00,57.6,54.7,29.98,WNW,289,0.1,1.1,90,0.00,CLR,,0.00,WeatherDisplay:10.37,2013-09-12 11:58:00,
2013-09-12 06:59:00,57.6,54.7,29.98,West,275,0.3,1.2,90,0.00,CLR,,0.00,WeatherDisplay:10.37,2013-09-12 11:59:00,
2013-09-12 07:03:00,57.8,54.9,29.98,NW,305,1.6,3.5,90,0.00,CLR,,0.00,WeatherDisplay:10.37,2013-09-12 12:03:00,
2013-09-12 07:04:00,57.8,54.9,29.98,West,278,0.7,2.3,90,0.00,CLR,,0.00,WeatherDisplay:10.37,2013-09-12 12:04:00,
2013-09-12 07:08:00,57.9,55.0,29.98,WSW,250,0.2,2.3,90,0.00,CLR,,0.00,WeatherDisplay:10.37,2013-09-12 12:08:00,
2013-09-12 07:09:00,57.9,55.0,29.98,NW,318,1.0,1.6,90,0.00,CLR,,0.00,WeatherDisplay:10.37,2013-09-12 12:09:00,
2013-09-12 07:10:00,58.0,55.1,29.98,NW,318,0.7,3.5,90,0.00,CLR,,0.00,WeatherDisplay:10.37,2013-09-12 12:10:00,
2013-09-12 07:11:00,58.1,55.2,29.98,NW,312,0.6,3.5,90,0.00,CLR,,0.00,WeatherDisplay:10.37,2013-09-12 12:11:00,
2013-09-12 07:13:00,58.0,55.1,29.98,NW,308,3.2,5.8,90,0.00,CLR,,0.00,WeatherDisplay:10.37,2013-09-12 12:13:00,
2013-09-12 07:14:00,58.0,55.1,29.98,NW,316,2.4,5.8,90,0.00,CLR,,0.00,WeatherDisplay:10.37,2013-09-12 12:14:00,
2013-09-12 07:15:00,58.3,55.4,29.98,North,356,2.0,3.7,90,0.00,CLR,,0.00,WeatherDisplay:10.37,2013-09-12 12:15:00,
2013-09-12 07:16:00,58.2,55.3,29.98,West,265,4.1,5.8,90,0.00,CLR,,0.00,WeatherDisplay:10.37,2013-09-12 12:16:00,
2013-09-12 07:18:00,58.3,55.7,29.98,WNW,287,2.6,5.8,91,0.00,CLR,,0.00,WeatherDisplay:10.37,2013-09-12 12:18:00,
2013-09-12 07:19:00,58.4,55.8,29.98,NW,305,2.8,4.6,91,0.00,CLR,,0.00,WeatherDisplay:10.37,2013-09-12 12:19:00,
2013-09-12 07:21:00,58.4,55.8,29.98,NW,309,2.4,5.5,91,0.00,CLR,,0.00,WeatherDisplay:10.37,2013-09-12 12:21:00,
2013-09-12 07:23:00,58.6,56.0,29.98,NW,313,2.1,2.7,91,0.00,CLR,,0.00,WeatherDisplay:10.37,2013-09-12 12:23:00,
2013-09-12 07:24:00,58.7,55.8,29.98,NNW,342,3.2,6.9,90,0.00,CLR,,0.00,WeatherDisplay:10.37,2013-09-12 12:24:00,
2013-09-12 07:25:00,58.8,55.9,29.98,North,8,2.0,6.9,90,0.00,CLR,,0.00,WeatherDisplay:10.37,2013-09-12 12:25:00,
2013-09-12 07:26:00,58.8,55.9,29.98,NW,316,2.3,3.5,90,0.00,CLR,,0.00,WeatherDisplay:10.37,2013-09-12 12:26:00,
2013-09-12 07:29:00,58.8,55.9,29.98,NW,308,1.8,4.6,90,0.00,CLR,,0.00,WeatherDisplay:10.37,2013-09-12 12:29:00,
2013-09-12 07:31:00,58.9,56.0,29.99,NW,315,2.2,4.6,90,0.00,CLR,,0.00,WeatherDisplay:10.37,2013-09-12 12:31:00,
2013-09-12 07:32:00,59.0,56.1,29.99,NNW,343,2.3,4.5,90,0.00,CLR,,0.00,WeatherDisplay:10.37,2013-09-12 12:32:00,
2013-09-12 07:34:00,59.2,56.3,29.99,West,264,0.4,0.6,90,0.00,CLR,,0.00,WeatherDisplay:10.37,2013-09-12 12:34:00,
2013-09-12 07:35:00,59.1,56.2,29.99,WNW,288,3.5,5.8,90,0.00,CLR,,0.00,WeatherDisplay:10.37,2013-09-12 12:35:00,
2013-09-12 07:36:00,59.1,56.2,29.99,NW,322,2.6,5.8,90,0.00,CLR,,0.00,WeatherDisplay:10.37,2013-09-12 12:36:00,
2013-09-12 07:37:00,59.1,56.2,29.99,West,280,5.0,6.9,90,0.00,CLR,,0.00,WeatherDisplay:10.37,2013-09-12 12:37:00,
2013-09-12 07:39:00,59.3,56.4,29.99,SW,224,2.7,4.6,90,0.00,CLR,,0.00,WeatherDisplay:10.37,2013-09-12 12:39:00,
2013-09-12 07:40:00,59.3,56.4,29.99,North,349,2.1,4.6,90,0.00,CLR,,0.00,WeatherDisplay:10.37,2013-09-12 12:40:00,
2013-09-12 07:41:00,59.3,56.4,29.99,North,353,1.9,4.8,90,0.00,CLR,,0.00,WeatherDisplay:10.37,2013-09-12 12:41:00,
2013-09-12 07:42:00,59.3,56.4,29.99,NW,304,4.2,6.9,90,0.00,CLR,,0.00,WeatherDisplay:10.37,2013-09-12 12:42:00,
2013-09-12 07:44:00,59.3,56.4,29.99,NW,305,3.0,4.6,90,0.00,CLR,,0.00,WeatherDisplay:10.37,2013-09-12 12:44:00,
2013-09-12 07:45:00,59.3,56.4,29.99,WNW,288,1.5,4.6,90,0.00,CLR,,0.00,WeatherDisplay:10.37,2013-09-12 12:45:00,
2013-09-12 07:46:00,59.4,56.5,29.99,WNW,291,2.3,3.5,90,0.00,CLR,,0.00,WeatherDisplay:10.37,2013-09-12 12:46:00,
2013-09-12 07:47:00,59.4,56.5,29.99,NW,323,1.6,3.5,90,0.00,CLR,,0.00,WeatherDisplay:10.37,2013-09-12 12:47:00,
2013-09-12 07:49:00,59.4,56.5,29.99,North,350,1.0,4.1,90,0.00,CLR,,0.00,WeatherDisplay:10.37,2013-09-12 12:49:00,
2013-09-12 07:50:00,59.4,56.5,29.99,NW,313,2.0,4.4,90,0.00,CLR,,0.00,WeatherDisplay:10.37,2013-09-12 12:50:00,
2013-09-12 07:53:00,59.5,56.6,29.99,WNW,294,1.6,3.5,90,0.00,CLR,,0.00,WeatherDisplay:10.37,2013-09-12 12:53:00,
2013-09-12 07:54:00,59.5,56.6,29.99,WNW,291,1.8,4.2,90,0.00,CLR,,0.00,WeatherDisplay:10.37,2013-09-12 12:54:00,
2013-09-12 07:55:00,59.5,56.6,29.99,WNW,302,3.1,3.5,90,0.00,CLR,,0.00,WeatherDisplay:10.37,2013-09-12 12:55:00,
2013-09-12 07:58:00,59.5,56.3,29.99,WNW,299,2.6,4.6,89,0.00,CLR,,0.00,WeatherDisplay:10.37,2013-09-12 12:58:00,
2013-09-12 07:59:00,59.6,56.4,29.99,NW,313,0.4,4.6,89,0.00,CLR,,0.00,WeatherDisplay:10.37,2013-09-12 12:59:00,
2013-09-12 08:00:00,59.6,56.4,29.99,NNW,343,0.9,1.2,89,0.00,CLR,,0.00,WeatherDisplay:10.37,2013-09-12 13:00:00,
2013-09-12 08:04:00,59.7,56.5,29.99,WNW,302,2.2,4.6,89,0.00,CLR,,0.00,WeatherDisplay:10.37,2013-09-12 13:04:00,
2013-09-12 08:05:00,59.7,56.1,29.99,WNW,296,2.3,4.6,88,0.00,CLR,,0.00,WeatherDisplay:10.37,2013-09-12 13:05:00,
2013-09-12 08:06:00,59.8,56.2,29.99,NW,323,1.0,3.5,88,0.00,CLR,,0.00,WeatherDisplay:10.37,2013-09-12 13:06:00,
2013-09-12 08:07:00,59.8,56.2,29.99,NW,318,2.8,5.8,88,0.00,CLR,,0.00,WeatherDisplay:10.37,2013-09-12 13:07:00,
2013-09-12 08:09:00,59.9,56.3,29.99,NW,322,0.3,1.2,88,0.00,CLR,,0.00,WeatherDisplay:10.37,2013-09-12 13:09:00,
2013-09-12 08:10:00,59.9,56.3,29.99,NW,322,0.3,1.2,88,0.00,CLR,,0.00,WeatherDisplay:10.37,2013-09-12 13:10:00,
2013-09-12 08:11:00,60.0,56.4,29.99,NW,322,0.0,0.0,88,0.00,CLR,,0.00,WeatherDisplay:10.37,2013-09-12 13:11:00,
2013-09-12 08:13:00,60.0,56.4,29.99,SSW,213,0.6,1.2,88,0.00,CLR,,0.00,WeatherDisplay:10.37,2013-09-12 13:13:00,
2013-09-12 08:15:00,60.1,56.2,29.99,SSW,205,1.1,3.5,87,0.00,CLR,,0.00,WeatherDisplay:10.37,2013-09-12 13:15:00,
2013-09-12 08:16:00,60.1,56.2,29.99,NNW,347,1.8,3.4,87,0.00,CLR,,0.00,WeatherDisplay:10.37,2013-09-12 13:16:00,
2013-09-12 08:18:00,60.3,56.4,29.99,NNW,335,2.1,4.6,87,0.00,CLR,,0.00,WeatherDisplay:10.37,2013-09-12 13:18:00,
2013-09-12 08:20:00,60.3,56.1,30.00,NW,304,5.3,6.9,86,0.00,CLR,,0.00,WeatherDisplay:10.37,2013-09-12 13:20:00,
2013-09-12 08:21:00,60.5,56.3,29.99,WNW,285,4.3,9.2,86,0.00,CLR,,0.00,WeatherDisplay:10.37,2013-09-12 13:21:00,
2013-09-12 08:25:00,60.6,56.1,29.99,South,175,4.0,12.7,85,0.00,CLR,,0.00,WeatherDisplay:10.37,2013-09-12 13:25:00,
2013-09-12 08:26:00,60.6,55.7,29.99,WSW,256,3.4,5.8,84,0.00,CLR,,0.00,WeatherDisplay:10.37,2013-09-12 13:26:00,
2013-09-12 08:27:00,60.7,55.8,29.99,SSW,206,3.2,6.9,84,0.00,CLR,,0.00,WeatherDisplay:10.37,2013-09-12 13:27:00,
2013-09-12 08:30:00,60.7,55.5,29.99,SW,215,2.3,4.6,83,0.00,CLR,,0.00,WeatherDisplay:10.37,2013-09-12 13:30:00,
2013-09-12 08:31:00,61.0,55.5,29.99,NNW,342,2.4,4.8,82,0.00,CLR,,0.00,WeatherDisplay:10.37,2013-09-12 13:31:00,
2013-09-12 08:32:00,60.8,55.3,29.99,North,4,2.8,4.6,82,0.00,CLR,,0.00,WeatherDisplay:10.37,2013-09-12 13:32:00,
2013-09-12 08:34:00,60.9,55.4,29.99,NNW,342,2.6,6.9,82,0.00,CLR,,0.00,WeatherDisplay:10.37,2013-09-12 13:34:00,
2013-09-12 08:35:00,60.9,55.4,29.99,NW,323,0.9,4.5,82,0.00,CLR,,0.00,WeatherDisplay:10.37,2013-09-12 13:35:00,
2013-09-12 08:36:00,61.0,55.5,29.99,NE,34,4.6,6.9,82,0.00,CLR,,0.00,WeatherDisplay:10.37,2013-09-12 13:36:00,
2013-09-12 08:37:00,61.1,55.2,29.99,North,359,3.7,8.1,81,0.00,CLR,,0.00,WeatherDisplay:10.37,2013-09-12 13:37:00,
2013-09-12 08:38:00,61.1,55.2,29.99,NW,320,3.8,8.1,81,0.00,CLR,,0.00,WeatherDisplay:10.37,2013-09-12 13:38:00,
2013-09-12 08:40:00,61.1,54.9,29.99,NNW,335,5.2,10.4,80,0.00,CLR,,0.00,WeatherDisplay:10.37,2013-09-12 13:40:00,
2013-09-12 08:41:00,61.1,54.9,29.99,WNW,291,5.2,8.1,80,0.00,CLR,,0.00,WeatherDisplay:10.37,2013-09-12 13:41:00,
2013-09-12 08:42:00,61.1,54.9,30.00,NW,318,3.5,5.8,80,0.00,CLR,,0.00,WeatherDisplay:10.37,2013-09-12 13:42:00,
2013-09-12 08:44:00,61.2,55.0,30.00,WNW,295,4.1,8.1,80,0.00,CLR,,0.00,WeatherDisplay:10.37,2013-09-12 13:44:00,
2013-09-12 08:45:00,61.3,55.1,30.00,WNW,295,3.8,8.1,80,0.00,CLR,,0.00,WeatherDisplay:10.37,2013-09-12 13:45:00,
2013-09-12 08:46:00,61.3,55.1,30.00,WNW,302,3.2,5.8,80,0.00,CLR,,0.00,WeatherDisplay:10.37,2013-09-12 13:46:00,
2013-09-12 08:47:00,61.3,55.1,30.00,NW,305,2.9,6.9,80,0.00,CLR,,0.00,WeatherDisplay:10.37,2013-09-12 13:47:00,
2013-09-12 08:50:00,61.4,54.8,29.99,NW,316,5.4,9.2,79,0.00,CLR,,0.00,WeatherDisplay:10.37,2013-09-12 13:50:00,
2013-09-12 08:51:00,61.4,54.5,29.99,SW,223,3.3,6.9,78,0.00,CLR,,0.00,WeatherDisplay:10.37,2013-09-12 13:51:00,
2013-09-12 08:53:00,61.5,54.6,29.99,West,278,5.7,10.4,78,0.00,CLR,,0.00,WeatherDisplay:10.37,2013-09-12 13:53:00,
2013-09-12 08:55:00,61.7,54.8,29.99,NW,322,1.3,6.9,78,0.00,CLR,,0.00,WeatherDisplay:10.37,2013-09-12 13:55:00,
2013-09-12 08:56:00,61.5,54.6,29.99,North,360,1.7,4.6,78,0.00,CLR,,0.00,WeatherDisplay:10.37,2013-09-12 13:56:00,
2013-09-12 08:57:00,61.6,54.7,29.99,NW,325,2.7,5.8,78,0.00,CLR,,0.00,WeatherDisplay:10.37,2013-09-12 13:57:00,
2013-09-12 08:58:00,61.6,54.7,29.99,WNW,302,2.9,6.9,78,0.00,CLR,,0.00,WeatherDisplay:10.37,2013-09-12 13:58:00,
2013-09-12 09:01:00,61.9,54.6,30.00,NW,315,3.1,6.9,77,0.00,CLR,,0.00,WeatherDisplay:10.37,2013-09-12 14:01:00,
2013-09-12 09:02:00,61.9,54.6,30.00,NNW,343,3.2,6.9,77,0.00,CLR,,0.00,WeatherDisplay:10.37,2013-09-12 14:02:00,
2013-09-12 09:03:00,62.0,54.7,29.99,North,354,4.1,8.1,77,0.00,CLR,,0.00,WeatherDisplay:10.37,2013-09-12 14:03:00,
2013-09-12 09:07:00,62.1,54.8,29.99,NW,326,3.4,6.0,77,0.00,CLR,,0.00,WeatherDisplay:10.37,2013-09-12 14:07:00,
2013-09-12 09:08:00,62.1,54.8,29.99,WNW,301,2.9,9.2,77,0.00,CLR,,0.00,WeatherDisplay:10.37,2013-09-12 14:08:00,
2013-09-12 09:12:00,62.3,55.0,30.00,NNE,13,2.4,4.6,77,0.00,CLR,,0.00,WeatherDisplay:10.37,2013-09-12 14:12:00,
2013-09-12 09:13:00,62.3,55.0,30.00,South,169,3.2,5.8,77,0.00,CLR,,0.00,WeatherDisplay:10.37,2013-09-12 14:13:00,
2013-09-12 09:17:00,62.6,54.9,30.00,West,275,3.4,9.2,76,0.00,CLR,,0.00,WeatherDisplay:10.37,2013-09-12 14:17:00,
2013-09-12 09:18:00,62.6,54.9,30.00,NNW,342,5.0,6.8,76,0.00,CLR,,0.00,WeatherDisplay:10.37,2013-09-12 14:18:00,
2013-09-12 09:19:00,62.6,54.6,30.00,West,271,4.7,9.2,75,0.00,CLR,,0.00,WeatherDisplay:10.37,2013-09-12 14:19:00,
2013-09-12 09:22:00,62.9,54.9,30.01,WSW,258,4.9,8.1,75,0.00,CLR,,0.00,WeatherDisplay:10.37,2013-09-12 14:22:00,
2013-09-12 09:23:00,62.7,54.7,30.01,WNW,301,3.4,8.1,75,0.00,CLR,,0.00,WeatherDisplay:10.37,2013-09-12 14:23:00,
2013-09-12 09:24:00,62.9,54.9,30.01,North,353,4.9,8.1,75,0.00,CLR,,0.00,WeatherDisplay:10.37,2013-09-12 14:24:00,
2013-09-12 09:27:00,63.1,55.0,30.01,NW,312,3.3,3.5,75,0.00,CLR,,0.00,WeatherDisplay:10.37,2013-09-12 14:27:00,
2013-09-12 09:28:00,63.2,55.1,30.01,NW,308,1.8,10.4,75,0.00,CLR,,0.00,WeatherDisplay:10.37,2013-09-12 14:28:00,
2013-09-12 09:30:00,63.1,54.7,30.01,NW,306,5.3,16.1,74,0.00,CLR,,0.00,WeatherDisplay:10.37,2013-09-12 14:30:00,
2013-09-12 09:32:00,63.3,54.9,30.01,NNE,24,2.9,10.4,74,0.00,CLR,,0.00,WeatherDisplay:10.37,2013-09-12 14:32:00,
2013-09-12 09:33:00,63.3,54.9,30.01,SW,229,4.2,5.8,74,0.00,CLR,,0.00,WeatherDisplay:10.37,2013-09-12 14:33:00,
2013-09-12 09:34:00,63.4,55.0,30.01,NW,311,6.3,8.1,74,0.00,CLR,,0.00,WeatherDisplay:10.37,2013-09-12 14:34:00,
2013-09-12 09:36:00,63.3,54.9,30.01,WNW,294,4.4,9.2,74,0.00,CLR,,0.00,WeatherDisplay:10.37,2013-09-12 14:36:00,
2013-09-12 09:37:00,63.6,55.2,30.01,West,278,5.9,10.4,74,0.00,CLR,,0.00,WeatherDisplay:10.37,2013-09-12 14:37:00,
2013-09-12 09:38:00,63.5,55.1,30.01,WNW,298,2.0,10.4,74,0.00,CLR,,0.00,WeatherDisplay:10.37,2013-09-12 14:38:00,
2013-09-12 09:40:00,63.6,54.8,30.01,NW,312,5.0,9.2,73,0.00,CLR,,0.00,WeatherDisplay:10.37,2013-09-12 14:40:00,
2013-09-12 09:41:00,63.7,54.9,30.01,NNW,340,3.5,11.5,73,0.00,CLR,,0.00,WeatherDisplay:10.37,2013-09-12 14:41:00,
2013-09-12 09:42:00,63.9,55.1,30.01,North,360,5.3,6.9,73,0.00,CLR,,0.00,WeatherDisplay:10.37,2013-09-12 14:42:00,
2013-09-12 09:43:00,63.8,55.0,30.01,North,360,2.5,5.5,73,0.00,CLR,,0.00,WeatherDisplay:10.37,2013-09-12 14:43:00,
2013-09-12 09:46:00,64.0,55.2,30.01,NNW,339,4.4,5.5,73,0.00,CLR,,0.00,WeatherDisplay:10.37,2013-09-12 14:46:00,
2013-09-12 09:47:00,63.9,54.7,30.01,NNW,337,6.4,11.5,72,0.00,CLR,,0.00,WeatherDisplay:10.37,2013-09-12 14:47:00,
2013-09-12 09:48:00,64.0,54.8,30.01,North,349,4.5,11.5,72,0.00,CLR,,0.00,WeatherDisplay:10.37,2013-09-12 14:48:00,
2013-09-12 09:49:00,64.0,54.8,30.01,WNW,291,4.1,11.5,72,0.00,CLR,,0.00,WeatherDisplay:10.37,2013-09-12 14:49:00,
2013-09-12 09:51:00,64.0,54.8,30.01,NW,305,2.0,5.0,72,0.00,CLR,,0.00,WeatherDisplay:10.37,2013-09-12 14:51:00,
2013-09-12 09:52:00,64.2,55.0,30.01,WNW,284,4.6,8.1,72,0.00,CLR,,0.00,WeatherDisplay:10.37,2013-09-12 14:52:00,
2013-09-12 09:54:00,64.2,55.0,30.00,West,267,4.4,8.1,72,0.00,CLR,,0.00,WeatherDisplay:10.37,2013-09-12 14:54:00,
2013-09-12 09:56:00,64.2,54.6,30.01,NNW,337,5.6,9.2,71,0.00,CLR,,0.00,WeatherDisplay:10.37,2013-09-12 14:56:00,
2013-09-12 09:58:00,64.2,54.6,30.00,West,261,3.5,5.8,71,0.00,CLR,,0.00,WeatherDisplay:10.37,2013-09-12 14:58:00,
2013-09-12 09:59:00,64.4,54.8,30.01,North,7,4.0,7.8,71,0.00,CLR,,0.00,WeatherDisplay:10.37,2013-09-12 14:59:00,
2013-09-12 10:00:00,64.3,54.7,30.01,North,360,3.1,8.1,71,0.00,CLR,,0.00,WeatherDisplay:10.37,2013-09-12 15:00:00,
2013-09-12 10:01:00,64.3,54.7,30.01,ENE,66,5.8,9.2,71,0.00,CLR,,0.00,WeatherDisplay:10.37,2013-09-12 15:01:00,
2013-09-12 10:03:00,64.5,54.5,30.01,North,7,5.9,10.4,70,0.00,CLR,,0.00,WeatherDisplay:10.37,2013-09-12 15:03:00,
2013-09-12 10:04:00,64.5,54.5,30.01,North,360,6.3,10.4,70,0.00,CLR,,0.00,WeatherDisplay:10.37,2013-09-12 15:04:00,
2013-09-12 10:05:00,64.6,54.6,30.01,NW,309,7.4,11.5,70,0.00,CLR,,0.00,WeatherDisplay:10.37,2013-09-12 15:05:00,
2013-09-12 10:07:00,64.6,54.6,30.01,NW,309,7.2,9.8,70,0.00,CLR,,0.00,WeatherDisplay:10.37,2013-09-12 15:07:00,
2013-09-12 10:08:00,64.6,54.6,30.01,WNW,288,7.4,12.7,70,0.00,CLR,,0.00,WeatherDisplay:10.37,2013-09-12 15:08:00,
2013-09-12 10:09:00,64.7,54.7,30.01,NNE,32,2.4,9.2,70,0.00,CLR,,0.00,WeatherDisplay:10.37,2013-09-12 15:09:00,
2013-09-12 10:10:00,64.6,54.6,30.01,NNW,336,3.8,6.9,70,0.00,CLR,,0.00,WeatherDisplay:10.37,2013-09-12 15:10:00,
2013-09-12 10:12:00,64.8,54.8,30.01,West,275,6.1,9.2,70,0.00,CLR,,0.00,WeatherDisplay:10.37,2013-09-12 15:12:00,
2013-09-12 10:13:00,64.8,54.4,30.01,NW,326,5.5,10.4,69,0.00,CLR,,0.00,WeatherDisplay:10.37,2013-09-12 15:13:00,
2013-09-12 10:14:00,64.8,54.4,30.01,SW,229,6.8,12.7,69,0.00,CLR,,0.00,WeatherDisplay:10.37,2013-09-12 15:14:00,
2013-09-12 10:15:00,64.9,54.5,30.01,WNW,289,2.6,12.7,69,0.00,CLR,,0.00,WeatherDisplay:10.37,2013-09-12 15:15:00,
2013-09-12 10:16:00,65.0,54.6,30.01,West,281,4.1,10.4,69,0.00,CLR,,0.00,WeatherDisplay:10.37,2013-09-12 15:16:00,
2013-09-12 10:17:00,64.9,54.9,30.01,North,354,2.8,8.1,70,0.00,CLR,,0.00,WeatherDisplay:10.37,2013-09-12 15:17:00,
2013-09-12 10:18:00,64.9,54.9,30.01,North,359,4.2,5.8,70,0.00,CLR,,0.00,WeatherDisplay:10.37,2013-09-12 15:18:00,
2013-09-12 10:19:00,64.9,54.5,30.01,WNW,291,5.1,10.4,69,0.00,CLR,,0.00,WeatherDisplay:10.37,2013-09-12 15:19:00,
2013-09-12 10:20:00,64.9,54.5,30.01,ENE,66,3.0,8.1,69,0.00,CLR,,0.00,WeatherDisplay:10.37,2013-09-12 15:20:00,
2013-09-12 10:21:00,65.1,54.7,30.01,North,360,5.7,9.9,69,0.00,CLR,,0.00,WeatherDisplay:10.37,2013-09-12 15:21:00,
2013-09-12 10:22:00,65.1,54.7,30.01,NNW,342,4.5,9.2,69,0.00,CLR,,0.00,WeatherDisplay:10.37,2013-09-12 15:22:00,
2013-09-12 10:23:00,65.2,54.8,30.01,NNW,330,3.0,9.2,69,0.00,CLR,,0.00,WeatherDisplay:10.37,2013-09-12 15:23:00,
2013-09-12 10:25:00,65.2,54.4,30.01,NNE,18,7.9,11.5,68,0.00,CLR,,0.00,WeatherDisplay:10.37,2013-09-12 15:25:00,
2013-09-12 10:26:00,65.2,54.4,30.01,NE,54,7.2,11.5,68,0.00,CLR,,0.00,WeatherDisplay:10.37,2013-09-12 15:26:00,
2013-09-12 10:27:00,65.3,54.5,30.01,North,7,4.8,9.2,68,0.00,CLR,,0.00,WeatherDisplay:10.37,2013-09-12 15:27:00,
2013-09-12 10:28:00,65.2,54.4,30.01,West,275,5.8,9.2,68,0.00,CLR,,0.00,WeatherDisplay:10.37,2013-09-12 15:28:00,
2013-09-12 10:31:00,65.4,54.6,30.01,North,11,6.0,11.5,68,0.00,CLR,,0.00,WeatherDisplay:10.37,2013-09-12 15:31:00,
2013-09-12 10:32:00,65.4,54.6,30.01,NW,318,5.8,11.5,68,0.00,CLR,,0.00,WeatherDisplay:10.37,2013-09-12 15:32:00,
2013-09-12 10:33:00,65.4,54.6,30.01,NNE,23,3.7,11.1,68,0.00,CLR,,0.00,WeatherDisplay:10.37,2013-09-12 15:33:00,
2013-09-12 10:36:00,65.8,54.9,30.01,NNW,330,6.0,8.2,68,0.00,CLR,,0.00,WeatherDisplay:10.37,2013-09-12 15:36:00,
2013-09-12 10:38:00,65.8,54.5,30.02,NW,309,7.2,11.5,67,0.00,CLR,,0.00,WeatherDisplay:10.37,2013-09-12 15:38:00,
2013-09-12 10:39:00,65.9,54.2,30.02,ENE,62,5.0,12.7,66,0.00,CLR,,0.00,WeatherDisplay:10.37,2013-09-12 15:39:00,
2013-09-12 10:41:00,66.0,54.3,30.02,SSW,203,5.8,11.5,66,0.00,CLR,,0.00,WeatherDisplay:10.37,2013-09-12 15:41:00,
2013-09-12 10:42:00,65.9,54.2,30.02,NE,48,5.9,11.5,66,0.00,CLR,,0.00,WeatherDisplay:10.37,2013-09-12 15:42:00,
2013-09-12 10:43:00,66.1,54.4,30.02,North,11,5.4,8.1,66,0.00,CLR,,0.00,WeatherDisplay:10.37,2013-09-12 15:43:00,
2013-09-12 10:44:00,66.1,54.4,30.02,WNW,292,3.7,9.2,66,0.00,CLR,,0.00,WeatherDisplay:10.37,2013-09-12 15:44:00,
2013-09-12 10:46:00,66.4,54.7,30.02,NW,320,3.9,8.1,66,0.00,CLR,,0.00,WeatherDisplay:10.37,2013-09-12 15:46:00,
2013-09-12 10:47:00,66.2,54.5,30.02,NNW,343,4.6,8.1,66,0.00,CLR,,0.00,WeatherDisplay:10.37,2013-09-12 15:47:00,
2013-09-12 10:49:00,66.4,54.3,30.02,NW,319,6.5,16.1,65,0.00,CLR,,0.00,WeatherDisplay:10.37,2013-09-12 15:49:00,
2013-09-12 10:52:00,66.7,54.6,30.02,NW,318,3.4,6.9,65,0.00,CLR,,0.00,WeatherDisplay:10.37,2013-09-12 15:52:00,
2013-09-12 10:53:00,66.8,54.7,30.02,North,6,5.6,10.4,65,0.00,CLR,,0.00,WeatherDisplay:10.37,2013-09-12 15:53:00,
2013-09-12 10:54:00,66.9,54.7,30.02,NNW,347,6.7,10.4,65,0.00,CLR,,0.00,WeatherDisplay:10.37,2013-09-12 15:54:00,
2013-09-12 10:55:00,67.0,54.4,30.02,NNE,13,7.4,10.4,64,0.00,CLR,,0.00,WeatherDisplay:10.37,2013-09-12 15:55:00,
2013-09-12 10:57:00,66.9,54.3,30.02,NW,305,5.5,8.1,64,0.00,CLR,,0.00,WeatherDisplay:10.37,2013-09-12 15:57:00,
2013-09-12 10:59:00,67.2,54.2,30.02,North,350,6.2,11.5,63,0.00,CLR,,0.00,WeatherDisplay:10.37,2013-09-12 15:59:00,
2013-09-12 11:00:00,67.1,54.5,30.02,NW,304,3.8,8.1,64,0.00,CLR,,0.00,WeatherDisplay:10.37,2013-09-12 16:00:00,
2013-09-12 11:02:00,67.2,54.6,30.02,NE,42,3.4,9.2,64,0.00,CLR,,0.00,WeatherDisplay:10.37,2013-09-12 16:02:00,
2013-09-12 11:04:00,67.3,54.7,30.02,NW,316,5.2,11.5,64,0.00,CLR,,0.00,WeatherDisplay:10.37,2013-09-12 16:04:00,
2013-09-12 11:05:00,67.3,54.7,30.02,North,10,6.3,10.4,64,0.00,CLR,,0.00,WeatherDisplay:10.37,2013-09-12 16:05:00,
2013-09-12 11:06:00,67.4,54.4,30.02,WNW,302,6.9,10.4,63,0.00,CLR,,0.00,WeatherDisplay:10.37,2013-09-12 16:06:00,
2013-09-12 11:07:00,67.5,54.5,30.02,NE,54,5.9,10.4,63,0.00,CLR,,0.00,WeatherDisplay:10.37,2013-09-12 16:07:00,
2013-09-12 11:09:00,67.5,54.5,30.02,NNE,18,6.7,8.8,63,0.00,CLR,,0.00,WeatherDisplay:10.37,2013-09-12 16:09:00,
2013-09-12 11:10:00,67.5,54.5,30.03,NW,323,7.0,12.7,63,0.00,CLR,,0.00,WeatherDisplay:10.37,2013-09-12 16:10:00,
2013-09-12 11:11:00,67.8,54.7,30.02,NNW,332,3.7,11.5,63,0.00,CLR,,0.00,WeatherDisplay:10.37,2013-09-12 16:11:00,
2013-09-12 11:12:00,67.8,54.7,30.02,NNW,333,2.2,4.6,63,0.00,CLR,,0.00,WeatherDisplay:10.37,2013-09-12 16:12:00,
2013-09-12 11:15:00,67.7,54.6,30.03,NW,325,4.7,12.7,63,0.00,CLR,,0.00,WeatherDisplay:10.37,2013-09-12 16:15:00,
2013-09-12 11:17:00,67.9,54.8,30.03,North,0,4.7,9.2,63,0.00,CLR,,0.00,WeatherDisplay:10.37,2013-09-12 16:17:00,
2013-09-12 11:20:00,67.9,54.4,30.03,ENE,62,5.2,8.1,62,0.00,CLR,,0.00,WeatherDisplay:10.37,2013-09-12 16:20:00,
2013-09-12 11:21:00,67.9,54.4,30.03,NW,318,4.9,8.1,62,0.00,CLR,,0.00,WeatherDisplay:10.37,2013-09-12 16:21:00,
2013-09-12 11:22:00,68.0,54.9,30.03,North,350,3.0,7.2,63,0.00,CLR,,0.00,WeatherDisplay:10.37,2013-09-12 16:22:00,
2013-09-12 11:26:00,68.3,54.3,30.03,NNE,13,5.4,9.2,61,0.00,CLR,,0.00,WeatherDisplay:10.37,2013-09-12 16:26:00,
2013-09-12 11:27:00,68.1,54.1,30.03,NNE,23,4.7,9.2,61,0.00,CLR,,0.00,WeatherDisplay:10.37,2013-09-12 16:27:00,
2013-09-12 11:28:00,68.2,54.2,30.03,North,349,4.8,8.1,61,0.00,CLR,,0.00,WeatherDisplay:10.37,2013-09-12 16:28:00,
2013-09-12 11:31:00,68.2,54.7,30.03,NNE,30,5.8,8.1,62,0.00,CLR,,0.00,WeatherDisplay:10.37,2013-09-12 16:31:00,
2013-09-12 11:32:00,68.3,54.8,30.03,North,4,5.7,12.7,62,0.00,CLR,,0.00,WeatherDisplay:10.37,2013-09-12 16:32:00,
2013-09-12 11:33:00,68.3,54.8,30.03,NNW,339,4.2,12.7,62,0.00,CLR,,0.00,WeatherDisplay:10.37,2013-09-12 16:33:00,
2013-09-12 11:36:00,68.3,54.8,30.03,NNW,342,5.7,11.5,62,0.00,CLR,,0.00,WeatherDisplay:10.37,2013-09-12 16:36:00,
2013-09-12 11:37:00,68.4,54.9,30.03,North,354,4.3,6.9,62,0.00,CLR,,0.00,WeatherDisplay:10.37,2013-09-12 16:37:00,
2013-09-12 11:38:00,68.4,54.4,30.03,NNE,20,7.8,10.6,61,0.00,CLR,,0.00,WeatherDisplay:10.37,2013-09-12 16:38:00,
2013-09-12 11:40:00,68.4,54.0,30.03,East,80,2.8,12.7,60,0.00,CLR,,0.00,WeatherDisplay:10.37,2013-09-12 16:40:00,
2013-09-12 11:41:00,68.3,54.3,30.03,South,181,1.5,5.8,61,0.00,CLR,,0.00,WeatherDisplay:10.37,2013-09-12 16:41:00,
2013-09-12 11:42:00,68.4,54.9,30.03,North,360,2.0,4.7,62,0.00,CLR,,0.00,WeatherDisplay:10.37,2013-09-12 16:42:00,
2013-09-12 11:43:00,68.4,54.4,30.03,SSW,199,4.6,6.9,61,0.00,CLR,,0.00,WeatherDisplay:10.37,2013-09-12 16:43:00,
2013-09-12 11:44:00,68.5,54.5,30.03,North,352,4.8,6.9,61,0.00,CLR,,0.00,WeatherDisplay:10.37,2013-09-12 16:44:00,
2013-09-12 11:45:00,68.5,54.5,30.03,NW,316,4.1,9.2,61,0.00,CLR,,0.00,WeatherDisplay:10.37,2013-09-12 16:45:00,
2013-09-12 11:46:00,68.5,54.5,30.03,North,360,3.2,9.2,61,0.00,CLR,,0.00,WeatherDisplay:10.37,2013-09-12 16:46:00,
2013-09-12 11:47:00,68.7,54.7,30.03,North,360,5.6,9.2,61,0.00,CLR,,0.00,WeatherDisplay:10.37,2013-09-12 16:47:00,
2013-09-12 11:48:00,68.7,54.7,30.03,West,271,4.9,9.2,61,0.00,CLR,,0.00,WeatherDisplay:10.37,2013-09-12 16:48:00,
2013-09-12 11:49:00,68.7,54.3,30.03,North,360,5.7,11.5,60,0.00,CLR,,0.00,WeatherDisplay:10.37,2013-09-12 16:49:00,
2013-09-12 11:51:00,68.7,54.7,30.03,North,4,2.6,4.6,61,0.00,CLR,,0.00,WeatherDisplay:10.37,2013-09-12 16:51:00,
2013-09-12 11:52:00,68.9,54.9,30.03,NNW,342,1.7,5.5,61,0.00,CLR,,0.00,WeatherDisplay:10.37,2013-09-12 16:52:00,
2013-09-12 11:53:00,68.9,54.9,30.03,North,360,4.1,5.8,61,0.00,CLR,,0.00,WeatherDisplay:10.37,2013-09-12 16:53:00,
2013-09-12 11:54:00,69.0,55.0,30.03,NW,305,2.0,6.9,61,0.00,CLR,,0.00,WeatherDisplay:10.37,2013-09-12 16:54:00,
2013-09-12 11:56:00,69.2,54.7,30.03,WSW,239,5.4,10.4,60,0.00,CLR,,0.00,WeatherDisplay:10.37,2013-09-12 16:56:00,
2013-09-12 11:57:00,69.3,54.8,30.03,NE,44,6.1,10.4,60,0.00,CLR,,0.00,WeatherDisplay:10.37,2013-09-12 16:57:00,
2013-09-12 11:58:00,69.3,54.8,30.03,NW,309,3.9,9.2,60,0.00,CLR,,0.00,WeatherDisplay:10.37,2013-09-12 16:58:00,
2013-09-12 11:59:00,69.4,54.9,30.03,NW,308,3.9,6.9,60,0.00,CLR,,0.00,WeatherDisplay:10.37,2013-09-12 16:59:00,
2013-09-12 12:01:00,69.3,53.9,30.03,NNE,21,4.9,9.2,58,0.00,CLR,,0.00,WeatherDisplay:10.37,2013-09-12 17:01:00,
2013-09-12 12:03:00,69.3,54.4,30.03,SSW,200,3.3,6.9,59,0.00,CLR,,0.00,WeatherDisplay:10.37,2013-09-12 17:03:00,
2013-09-12 12:04:00,69.2,54.3,30.03,North,352,5.7,10.4,59,0.00,CLR,,0.00,WeatherDisplay:10.37,2013-09-12 17:04:00,
2013-09-12 12:06:00,69.3,53.4,30.03,NW,326,8.3,12.7,57,0.00,CLR,,0.00,WeatherDisplay:10.37,2013-09-12 17:06:00,
2013-09-12 12:08:00,69.3,53.9,30.03,WNW,294,5.9,11.5,58,0.00,CLR,,0.00,WeatherDisplay:10.37,2013-09-12 17:08:00,
2013-09-12 12:09:00,69.4,53.0,30.03,NW,308,5.7,11.5,56,0.00,CLR,,0.00,WeatherDisplay:10.37,2013-09-12 17:09:00,
2013-09-12 12:12:00,69.4,53.0,30.03,WNW,292,5.6,11.5,56,0.00,CLR,,0.00,WeatherDisplay:10.37,2013-09-12 17:12:00,
2013-09-12 12:13:00,69.5,53.6,30.03,NNE,25,5.6,9.2,57,0.00,CLR,,0.00,WeatherDisplay:10.37,2013-09-12 17:13:00,
2013-09-12 12:14:00,69.5,53.1,30.03,NNW,337,5.4,9.6,56,0.00,CLR,,0.00,WeatherDisplay:10.37,2013-09-12 17:14:00,
2013-09-12 12:17:00,69.5,53.1,30.03,SW,230,4.4,10.4,56,0.00,CLR,,0.00,WeatherDisplay:10.37,2013-09-12 17:17:00,
2013-09-12 12:18:00,69.6,53.7,30.03,NNE,25,5.3,9.6,57,0.00,CLR,,0.00,WeatherDisplay:10.37,2013-09-12 17:18:00,
2013-09-12 12:19:00,69.8,52.9,30.03,WSW,256,7.7,12.7,55,0.00,CLR,,0.00,WeatherDisplay:10.37,2013-09-12 17:19:00,
2013-09-12 12:20:00,69.7,52.8,30.03,North,360,6.1,12.7,55,0.00,CLR,,0.00,WeatherDisplay:10.37,2013-09-12 17:20:00,
2013-09-12 12:22:00,69.9,52.5,30.03,NE,51,8.3,17.3,54,0.00,CLR,,0.00,WeatherDisplay:10.37,2013-09-12 17:22:00,
2013-09-12 12:23:00,69.9,53.0,30.03,NNW,339,4.6,11.5,55,0.00,CLR,,0.00,WeatherDisplay:10.37,2013-09-12 17:23:00,
2013-09-12 12:24:00,69.9,53.0,30.03,North,360,5.4,11.5,55,0.00,CLR,,0.00,WeatherDisplay:10.37,2013-09-12 17:24:00,
2013-09-12 12:25:00,69.9,53.0,30.03,North,360,6.6,8.1,55,0.00,CLR,,0.00,WeatherDisplay:10.37,2013-09-12 17:25:00,
2013-09-12 12:26:00,69.9,53.0,30.03,WNW,295,5.4,9.2,55,0.00,CLR,,0.00,WeatherDisplay:10.37,2013-09-12 17:26:00,
2013-09-12 12:27:00,70.0,53.1,30.03,North,360,7.9,11.5,55,0.00,CLR,,0.00,WeatherDisplay:10.37,2013-09-12 17:27:00,
2013-09-12 12:28:00,70.0,53.1,30.03,WSW,256,3.4,8.1,55,0.00,CLR,,0.00,WeatherDisplay:10.37,2013-09-12 17:28:00,
2013-09-12 12:29:00,70.2,53.8,30.03,NW,325,3.3,8.1,56,0.00,CLR,,0.00,WeatherDisplay:10.37,2013-09-12 17:29:00,
2013-09-12 12:30:00,70.3,53.9,30.03,North,4,4.7,6.9,56,0.00,CLR,,0.00,WeatherDisplay:10.37,2013-09-12 17:30:00,
2013-09-12 12:31:00,70.3,53.4,30.03,NW,306,7.3,12.7,55,0.00,CLR,,0.00,WeatherDisplay:10.37,2013-09-12 17:31:00,
2013-09-12 12:32:00,70.4,54.0,30.02,NE,54,4.3,8.1,56,0.00,CLR,,0.00,WeatherDisplay:10.37,2013-09-12 17:32:00,
2013-09-12 12:33:00,70.5,54.0,30.02,NW,306,4.4,6.5,56,0.00,CLR,,0.00,WeatherDisplay:10.37,2013-09-12 17:33:00,
2013-09-12 12:34:00,70.6,53.6,30.03,NNE,31,3.9,8.1,55,0.00,CLR,,0.00,WeatherDisplay:10.37,2013-09-12 17:34:00,
2013-09-12 12:35:00,70.6,53.6,30.02,North,0,3.6,8.1,55,0.00,CLR,,0.00,WeatherDisplay:10.37,2013-09-12 17:35:00,
2013-09-12 12:36:00,70.7,53.7,30.03,North,359,5.8,8.3,55,0.00,CLR,,0.00,WeatherDisplay:10.37,2013-09-12 17:36:00,
2013-09-12 12:37:00,70.8,53.3,30.03,NE,47,5.7,9.2,54,0.00,CLR,,0.00,WeatherDisplay:10.37,2013-09-12 17:37:00,
2013-09-12 12:39:00,70.6,53.6,30.03,West,268,2.0,6.9,55,0.00,CLR,,0.00,WeatherDisplay:10.37,2013-09-12 17:39:00,
2013-09-12 12:40:00,70.8,53.8,30.03,North,8,5.1,11.4,55,0.00,CLR,,0.00,WeatherDisplay:10.37,2013-09-12 17:40:00,
2013-09-12 12:41:00,70.6,53.1,30.03,West,260,5.3,12.7,54,0.00,CLR,,0.00,WeatherDisplay:10.37,2013-09-12 17:41:00,
2013-09-12 12:42:00,70.6,53.1,30.03,NNW,342,8.7,15.0,54,0.00,CLR,,0.00,WeatherDisplay:10.37,2013-09-12 17:42:00,
2013-09-12 12:45:00,70.5,52.5,30.03,NW,316,8.3,11.5,53,0.00,CLR,,0.00,WeatherDisplay:10.37,2013-09-12 17:45:00,
2013-09-12 12:46:00,70.5,52.5,30.02,NNW,346,5.9,11.5,53,0.00,CLR,,0.00,WeatherDisplay:10.37,2013-09-12 17:46:00,
2013-09-12 12:47:00,70.5,52.0,30.02,NNW,343,7.4,11.5,52,0.00,CLR,,0.00,WeatherDisplay:10.37,2013-09-12 17:47:00,
2013-09-12 12:48:00,70.4,51.9,30.02,NNE,14,6.9,11.5,52,0.00,CLR,,0.00,WeatherDisplay:10.37,2013-09-12 17:48:00,
2013-09-12 12:50:00,70.5,52.5,30.02,NNW,333,3.9,11.5,53,0.00,CLR,,0.00,WeatherDisplay:10.37,2013-09-12 17:50:00,
2013-09-12 12:51:00,70.5,53.1,30.02,North,359,4.0,8.1,54,0.00,CLR,,0.00,WeatherDisplay:10.37,2013-09-12 17:51:00,
2013-09-12 12:53:00,70.6,52.6,30.02,NW,326,5.4,10.4,53,0.00,CLR,,0.00,WeatherDisplay:10.37,2013-09-12 17:53:00,
2013-09-12 12:55:00,70.8,52.3,30.02,NE,40,5.6,10.4,52,0.00,CLR,,0.00,WeatherDisplay:10.37,2013-09-12 17:55:00,
2013-09-12 12:57:00,70.9,51.9,30.02,NW,318,6.0,9.2,51,0.00,CLR,,0.00,WeatherDisplay:10.37,2013-09-12 17:57:00,
2013-09-12 12:58:00,70.9,51.3,30.02,North,8,6.9,13.8,50,0.00,CLR,,0.00,WeatherDisplay:10.37,2013-09-12 17:58:00,
2013-09-12 13:00:00,71.0,51.4,30.02,NNE,21,6.1,11.5,50,0.00,CLR,,0.00,WeatherDisplay:10.37,2013-09-12 18:00:00,
2013-09-12 13:03:00,71.1,52.0,30.02,NNW,332,6.3,10.4,51,0.00,CLR,,0.00,WeatherDisplay:10.37,2013-09-12 18:03:00,
2013-09-12 13:04:00,71.2,52.1,30.02,NW,318,5.5,9.2,51,0.00,CLR,,0.00,WeatherDisplay:10.37,2013-09-12 18:04:00,
2013-09-12 13:05:00,71.2,52.1,30.02,NW,320,7.6,13.1,51,0.00,CLR,,0.00,WeatherDisplay:10.37,2013-09-12 18:05:00,
2013-09-12 13:06:00,71.2,52.1,30.02,NNW,332,7.8,11.2,51,0.00,CLR,,0.00,WeatherDisplay:10.37,2013-09-12 18:06:00,
2013-09-12 13:08:00,71.1,52.0,30.02,NNW,333,8.1,9.2,51,0.00,CLR,,0.00,WeatherDisplay:10.37,2013-09-12 18:08:00,
2013-09-12 13:09:00,71.2,52.7,30.02,WNW,291,4.9,13.8,52,0.00,CLR,,0.00,WeatherDisplay:10.37,2013-09-12 18:09:00,
2013-09-12 13:11:00,71.0,52.5,30.03,NNW,335,7.1,12.7,52,0.00,CLR,,0.00,WeatherDisplay:10.37,2013-09-12 18:11:00,
2013-09-12 13:13:00,71.0,52.5,30.03,North,11,6.0,12.7,52,0.00,CLR,,0.00,WeatherDisplay:10.37,2013-09-12 18:13:00,
2013-09-12 13:15:00,71.1,53.1,30.03,NNE,17,4.2,8.1,53,0.00,CLR,,0.00,WeatherDisplay:10.37,2013-09-12 18:15:00,
2013-09-12 13:16:00,71.2,53.7,30.02,WSW,250,1.9,5.8,54,0.00,CLR,,0.00,WeatherDisplay:10.37,2013-09-12 18:16:00,
2013-09-12 13:17:00,71.3,54.3,30.02,NW,326,3.8,6.9,55,0.00,CLR,,0.00,WeatherDisplay:10.37,2013-09-12 18:17:00,
2013-09-12 13:18:00,71.2,53.7,30.03,NNW,337,4.6,9.2,54,0.00,CLR,,0.00,WeatherDisplay:10.37,2013-09-12 18:18:00,
2013-09-12 13:20:00,71.5,52.9,30.03,NNW,342,5.2,9.2,52,0.00,CLR,,0.00,WeatherDisplay:10.37,2013-09-12 18:20:00,
2013-09-12 13:21:00,71.5,52.4,30.03,NNW,335,5.2,8.1,51,0.00,CLR,,0.00,WeatherDisplay:10.37,2013-09-12 18:21:00,
2013-09-12 13:22:00,71.5,52.4,30.03,WNW,296,4.7,9.2,51,0.00,CLR,,0.00,WeatherDisplay:10.37,2013-09-12 18:22:00,
2013-09-12 13:23:00,71.5,51.9,30.03,North,360,4.5,9.2,50,0.00,CLR,,0.00,WeatherDisplay:10.37,2013-09-12 18:23:00,
2013-09-12 13:25:00,71.5,51.9,30.03,North,357,5.2,10.4,50,0.00,CLR,,0.00,WeatherDisplay:10.37,2013-09-12 18:25:00,
2013-09-12 13:26:00,71.3,52.2,30.03,NE,38,3.8,9.2,51,0.00,CLR,,0.00,WeatherDisplay:10.37,2013-09-12 18:26:00,
2013-09-12 13:27:00,71.4,52.3,30.03,NE,38,1.1,9.2,51,0.00,CLR,,0.00,WeatherDisplay:10.37,2013-09-12 18:27:00,
2013-09-12 13:29:00,71.5,52.9,30.03,NW,320,4.5,8.1,52,0.00,CLR,,0.00,WeatherDisplay:10.37,2013-09-12 18:29:00,
2013-09-12 13:31:00,71.7,53.1,30.03,North,10,3.7,9.2,52,0.00,CLR,,0.00,WeatherDisplay:10.37,2013-09-12 18:31:00,
2013-09-12 13:32:00,71.8,53.2,30.03,East,80,4.9,5.8,52,0.00,CLR,,0.00,WeatherDisplay:10.37,2013-09-12 18:32:00,
2013-09-12 13:33:00,72.0,53.4,30.03,NW,308,4.2,10.4,52,0.00,CLR,,0.00,WeatherDisplay:10.37,2013-09-12 18:33:00,
2013-09-12 13:34:00,71.9,53.3,30.03,NW,322,5.4,11.6,52,0.00,CLR,,0.00,WeatherDisplay:10.37,2013-09-12 18:34:00,
2013-09-12 13:36:00,72.0,51.8,30.03,WNW,289,3.9,9.2,49,0.00,CLR,,0.00,WeatherDisplay:10.37,2013-09-12 18:36:00,
2013-09-12 13:37:00,71.9,51.7,30.03,North,3,3.6,6.9,49,0.00,CLR,,0.00,WeatherDisplay:10.37,2013-09-12 18:37:00,
2013-09-12 13:39:00,71.9,52.2,30.03,NE,40,3.5,10.4,50,0.00,CLR,,0.00,WeatherDisplay:10.37,2013-09-12 18:39:00,
2013-09-12 13:42:00,71.9,52.2,30.03,NE,37,6.7,8.5,50,0.00,CLR,,0.00,WeatherDisplay:10.37,2013-09-12 18:42:00,
2013-09-12 13:43:00,71.9,52.2,30.03,NE,55,6.2,10.4,50,0.00,CLR,,0.00,WeatherDisplay:10.37,2013-09-12 18:43:00,
2013-09-12 13:44:00,71.9,51.7,30.03,NNE,18,4.7,10.4,49,0.00,CLR,,0.00,WeatherDisplay:10.37,2013-09-12 18:44:00,
2013-09-12 13:47:00,71.7,51.5,30.02,SW,222,6.2,10.4,49,0.00,CLR,,0.00,WeatherDisplay:10.37,2013-09-12 18:47:00,
2013-09-12 13:48:00,71.6,51.4,30.02,NE,49,2.4,11.5,49,0.00,CLR,,0.00,WeatherDisplay:10.37,2013-09-12 18:48:00,
2013-09-12 13:49:00,71.6,52.0,30.02,NNW,333,4.0,6.1,50,0.00,CLR,,0.00,WeatherDisplay:10.37,2013-09-12 18:49:00,
2013-09-12 13:52:00,71.7,51.5,30.02,NW,319,5.6,9.7,49,0.00,CLR,,0.00,WeatherDisplay:10.37,2013-09-12 18:52:00,
2013-09-12 13:53:00,71.7,51.5,30.02,NE,56,6.4,10.4,49,0.00,CLR,,0.00,WeatherDisplay:10.37,2013-09-12 18:53:00,
2013-09-12 13:54:00,71.8,52.2,30.02,NW,306,3.3,6.9,50,0.00,CLR,,0.00,WeatherDisplay:10.37,2013-09-12 18:54:00,
2013-09-12 13:57:00,72.0,51.8,30.02,NW,320,4.1,9.2,49,0.00,CLR,,0.00,WeatherDisplay:10.37,2013-09-12 18:57:00,
2013-09-12 13:58:00,72.2,51.4,30.02,NNW,340,3.4,9.2,48,0.00,CLR,,0.00,WeatherDisplay:10.37,2013-09-12 18:58:00,
2013-09-12 13:59:00,72.3,52.1,30.02,NNW,329,3.7,5.8,49,0.00,CLR,,0.00,WeatherDisplay:10.37,2013-09-12 18:59:00,
2013-09-12 14:03:00,72.5,51.1,30.02,NW,326,5.0,9.2,47,0.00,CLR,,0.00,WeatherDisplay:10.37,2013-09-12 19:03:00,
2013-09-12 14:05:00,72.6,51.8,30.02,NNW,340,3.5,5.8,48,0.00,CLR,,0.00,WeatherDisplay:10.37,2013-09-12 19:05:00,
2013-09-12 14:06:00,72.6,51.2,30.02,NW,320,5.7,9.2,47,0.00,CLR,,0.00,WeatherDisplay:10.37,2013-09-12 19:06:00,
2013-09-12 14:08:00,72.8,52.0,30.02,WNW,296,4.3,8.1,48,0.00,CLR,,0.00,WeatherDisplay:10.37,2013-09-12 19:08:00,
2013-09-12 14:10:00,72.8,51.4,30.02,WNW,299,6.7,11.5,47,0.00,CLR,,0.00,WeatherDisplay:10.37,2013-09-12 19:10:00,
2013-09-12 14:11:00,72.8,51.4,30.02,NNW,346,5.6,9.2,47,0.00,CLR,,0.00,WeatherDisplay:10.37,2013-09-12 19:11:00,
2013-09-12 14:13:00,72.8,51.4,30.02,South,189,2.9,9.2,47,0.00,CLR,,0.00,WeatherDisplay:10.37,2013-09-12 19:13:00,
2013-09-12 14:14:00,73.0,51.6,30.02,South,181,4.4,9.2,47,0.00,CLR,,0.00,WeatherDisplay:10.37,2013-09-12 19:14:00,
2013-09-12 14:15:00,72.9,51.5,30.02,North,354,4.1,8.1,47,0.00,CLR,,0.00,WeatherDisplay:10.37,2013-09-12 19:15:00,
2013-09-12 14:16:00,73.0,51.6,30.02,NNW,339,3.5,11.5,47,0.00,CLR,,0.00,WeatherDisplay:10.37,2013-09-12 19:16:00,
2013-09-12 14:17:00,73.3,51.8,30.02,NW,311,4.0,5.8,47,0.00,CLR,,0.00,WeatherDisplay:10.37,2013-09-12 19:17:00,
2013-09-12 14:18:00,73.5,52.0,30.02,NNE,32,4.2,8.0,47,0.00,CLR,,0.00,WeatherDisplay:10.37,2013-09-12 19:18:00,
2013-09-12 14:19:00,73.5,50.9,30.02,WNW,296,6.2,15.0,45,0.00,CLR,,0.00,WeatherDisplay:10.37,2013-09-12 19:19:00,
2013-09-12 14:20:00,73.7,51.0,30.02,North,356,5.4,15.0,45,0.00,CLR,,0.00,WeatherDisplay:10.37,2013-09-12 19:20:00,
2013-09-12 14:21:00,73.9,51.8,30.02,NE,49,3.2,8.1,46,0.00,CLR,,0.00,WeatherDisplay:10.37,2013-09-12 19:21:00,
2013-09-12 14:23:00,74.1,51.4,30.02,North,10,4.7,9.2,45,0.00,CLR,,0.00,WeatherDisplay:10.37,2013-09-12 19:23:00,
2013-09-12 14:24:00,74.2,50.9,30.02,NNW,329,5.9,10.4,44,0.00,CLR,,0.00,WeatherDisplay:10.37,2013-09-12 19:24:00,
2013-09-12 14:25:00,74.3,51.0,30.02,ENE,75,5.1,10.4,44,0.00,CLR,,0.00,WeatherDisplay:10.37,2013-09-12 19:25:00,
2013-09-12 14:27:00,74.6,52.4,30.02,NW,326,1.8,4.6,46,0.00,CLR,,0.00,WeatherDisplay:10.37,2013-09-12 19:27:00,
2013-09-12 14:28:00,74.7,51.3,30.02,NW,311,7.5,12.7,44,0.00,CLR,,0.00,WeatherDisplay:10.37,2013-09-12 19:28:00,
2013-09-12 14:30:00,74.9,50.9,30.01,WNW,296,4.8,10.4,43,0.00,CLR,,0.00,WeatherDisplay:10.37,2013-09-12 19:30:00,
2013-09-12 14:31:00,75.0,51.0,30.01,WNW,298,6.9,9.2,43,0.00,CLR,,0.00,WeatherDisplay:10.37,2013-09-12 19:31:00,
2013-09-12 14:33:00,75.0,51.0,30.02,WNW,302,5.2,9.6,43,0.00,CLR,,0.00,WeatherDisplay:10.37,2013-09-12 19:33:00,
2013-09-12 14:34:00,75.0,51.0,30.02,NW,305,6.5,9.2,43,0.00,CLR,,0.00,WeatherDisplay:10.37,2013-09-12 19:34:00,
2013-09-12 14:35:00,74.9,50.3,30.01,NE,54,5.1,9.2,42,0.00,CLR,,0.00,WeatherDisplay:10.37,2013-09-12 19:35:00,
2013-09-12 14:36:00,74.9,50.9,30.01,WNW,301,2.0,8.1,43,0.00,CLR,,0.00,WeatherDisplay:10.37,2013-09-12 19:36:00,
2013-09-12 14:38:00,74.9,51.5,30.01,North,350,3.8,6.9,44,0.00,CLR,,0.00,WeatherDisplay:10.37,2013-09-12 19:38:00,
2013-09-12 14:39:00,75.0,51.6,30.01,NW,312,5.5,9.1,44,0.00,CLR,,0.00,WeatherDisplay:10.37,2013-09-12 19:39:00,
2013-09-12 14:40:00,75.0,51.6,30.02,North,8,6.6,13.0,44,0.00,CLR,,0.00,WeatherDisplay:10.37,2013-09-12 19:40:00,
2013-09-12 14:41:00,75.1,50.4,30.02,NW,312,7.2,11.5,42,0.00,CLR,,0.00,WeatherDisplay:10.37,2013-09-12 19:41:00,
2013-09-12 14:43:00,75.0,50.3,30.01,NW,304,5.5,10.4,42,0.00,CLR,,0.00,WeatherDisplay:10.37,2013-09-12 19:43:00,
2013-09-12 14:44:00,75.0,51.0,30.01,NW,312,4.9,10.4,43,0.00,CLR,,0.00,WeatherDisplay:10.37,2013-09-12 19:44:00,
2013-09-12 14:45:00,75.0,50.3,30.01,NW,316,5.8,6.9,42,0.00,CLR,,0.00,WeatherDisplay:10.37,2013-09-12 19:45:00,
2013-09-12 14:47:00,75.0,50.3,30.01,NNW,343,6.3,12.7,42,0.00,CLR,,0.00,WeatherDisplay:10.37,2013-09-12 19:47:00,
2013-09-12 14:48:00,75.0,50.3,30.01,NNW,329,6.0,11.5,42,0.00,CLR,,0.00,WeatherDisplay:10.37,2013-09-12 19:48:00,
2013-09-12 14:49:00,75.0,50.3,30.01,NNW,336,5.0,11.5,42,0.00,CLR,,0.00,WeatherDisplay:10.37,2013-09-12 19:49:00,
2013-09-12 14:50:00,75.0,50.3,30.01,NW,305,5.7,9.2,42,0.00,CLR,,0.00,WeatherDisplay:10.37,2013-09-12 19:50:00,
2013-09-12 14:52:00,75.1,51.1,30.01,WNW,288,5.1,9.2,43,0.00,CLR,,0.00,WeatherDisplay:10.37,2013-09-12 19:52:00,
2013-09-12 14:54:00,75.2,51.2,30.01,WNW,284,4.5,12.7,43,0.00,CLR,,0.00,WeatherDisplay:10.37,2013-09-12 19:54:00,
2013-09-12 14:55:00,75.1,51.1,30.02,North,349,4.1,6.4,43,0.00,CLR,,0.00,WeatherDisplay:10.37,2013-09-12 19:55:00,
2013-09-12 14:57:00,75.2,51.2,30.02,WNW,301,4.7,9.2,43,0.00,CLR,,0.00,WeatherDisplay:10.37,2013-09-12 19:57:00,
2013-09-12 14:59:00,75.1,51.1,30.01,NW,312,5.9,8.1,43,0.00,CLR,,0.00,WeatherDisplay:10.37,2013-09-12 19:59:00,
2013-09-12 15:00:00,75.2,51.2,30.01,NW,312,5.7,10.4,43,0.00,CLR,,0.00,WeatherDisplay:10.37,2013-09-12 20:00:00,
2013-09-12 15:02:00,75.0,50.3,30.01,North,7,7.2,13.8,42,0.00,CLR,,0.00,WeatherDisplay:10.37,2013-09-12 20:02:00,
2013-09-12 15:04:00,74.6,50.6,30.02,North,360,7.4,12.7,43,0.00,CLR,,0.00,WeatherDisplay:10.37,2013-09-12 20:04:00,
2013-09-12 15:05:00,74.6,50.6,30.02,North,6,7.5,12.7,43,0.00,CLR,,0.00,WeatherDisplay:10.37,2013-09-12 20:05:00,
2013-09-12 15:06:00,74.5,50.5,30.02,NNE,17,4.0,10.4,43,0.00,CLR,,0.00,WeatherDisplay:10.37,2013-09-12 20:06:00,
2013-09-12 15:07:00,74.3,51.0,30.02,WNW,289,4.5,8.1,44,0.00,CLR,,0.00,WeatherDisplay:10.37,2013-09-12 20:07:00,
2013-09-12 15:10:00,74.4,51.1,30.01,SSE,147,3.6,6.9,44,0.00,CLR,,0.00,WeatherDisplay:10.37,2013-09-12 20:10:00,
2013-09-12 15:11:00,74.5,51.2,30.01,North,360,4.3,8.1,44,0.00,CLR,,0.00,WeatherDisplay:10.37,2013-09-12 20:11:00,
2013-09-12 15:12:00,74.7,50.7,30.02,North,8,5.4,10.4,43,0.00,CLR,,0.00,WeatherDisplay:10.37,2013-09-12 20:12:00,
2013-09-12 15:13:00,74.6,50.6,30.02,SE,138,6.2,11.5,43,0.00,CLR,,0.00,WeatherDisplay:10.37,2013-09-12 20:13:00,
2013-09-12 15:15:00,74.4,49.8,30.02,NNW,347,5.7,13.8,42,0.00,CLR,,0.00,WeatherDisplay:10.37,2013-09-12 20:15:00,
2013-09-12 15:16:00,74.2,49.6,30.02,North,10,8.0,13.8,42,0.00,CLR,,0.00,WeatherDisplay:10.37,2013-09-12 20:16:00,
2013-09-12 15:17:00,73.9,49.4,30.02,ESE,116,4.8,8.1,42,0.00,CLR,,0.00,WeatherDisplay:10.37,2013-09-12 20:17:00,
2013-09-12 15:18:00,73.7,49.2,30.02,NNW,336,5.9,10.4,42,0.00,CLR,,0.00,WeatherDisplay:10.37,2013-09-12 20:18:00,
2013-09-12 15:20:00,73.3,50.1,30.02,North,360,6.0,8.3,44,0.00,CLR,,0.00,WeatherDisplay:10.37,2013-09-12 20:20:00,
2013-09-12 15:21:00,73.2,50.0,30.02,NE,47,5.8,8.1,44,0.00,CLR,,0.00,WeatherDisplay:10.37,2013-09-12 20:21:00,
2013-09-12 15:23:00,73.1,49.9,30.02,NNW,337,4.6,10.4,44,0.00,CLR,,0.00,WeatherDisplay:10.37,2013-09-12 20:23:00,
2013-09-12 15:24:00,73.1,49.9,30.02,NNW,332,4.3,6.9,44,0.00,CLR,,0.00,WeatherDisplay:10.37,2013-09-12 20:24:00,
2013-09-12 15:26:00,73.1,49.9,30.02,North,11,4.6,9.2,44,0.00,CLR,,0.00,WeatherDisplay:10.37,2013-09-12 20:26:00,
2013-09-12 15:29:00,73.4,49.5,30.02,NW,311,2.2,8.1,43,0.00,CLR,,0.00,WeatherDisplay:10.37,2013-09-12 20:29:00,
2013-09-12 15:30:00,73.3,49.4,30.02,WNW,301,2.6,8.1,43,0.00,CLR,,0.00,WeatherDisplay:10.37,2013-09-12 20:30:00,
2013-09-12 15:31:00,73.4,49.5,30.02,North,8,5.7,13.8,43,0.00,CLR,,0.00,WeatherDisplay:10.37,2013-09-12 20:31:00,
2013-09-12 15:32:00,73.5,50.2,30.02,North,7,3.4,6.9,44,0.00,CLR,,0.00,WeatherDisplay:10.37,2013-09-12 20:32:00,
2013-09-12 15:36:00,73.9,50.0,30.02,WNW,289,4.8,10.4,43,0.00,CLR,,0.00,WeatherDisplay:10.37,2013-09-12 20:36:00,
2013-09-12 15:37:00,74.0,49.4,30.02,WNW,287,8.2,9.6,42,0.00,CLR,,0.00,WeatherDisplay:10.37,2013-09-12 20:37:00,
2013-09-12 15:41:00,74.1,49.5,30.02,WNW,285,4.5,11.5,42,0.00,CLR,,0.00,WeatherDisplay:10.37,2013-09-12 20:41:00,
2013-09-12 15:42:00,74.1,49.5,30.02,NNW,342,5.9,11.5,42,0.00,CLR,,0.00,WeatherDisplay:10.37,2013-09-12 20:42:00,
2013-09-12 15:46:00,74.0,49.4,30.02,NW,318,4.4,9.2,42,0.00,CLR,,0.00,WeatherDisplay:10.37,2013-09-12 20:46:00,
2013-09-12 15:47:00,74.1,49.5,30.02,WNW,289,4.6,9.2,42,0.00,CLR,,0.00,WeatherDisplay:10.37,2013-09-12 20:47:00,
2013-09-12 15:48:00,74.1,48.9,30.02,ESE,106,4.4,6.9,41,0.00,CLR,,0.00,WeatherDisplay:10.37,2013-09-12 20:48:00,
2013-09-12 15:51:00,74.3,49.7,30.02,West,274,5.5,11.5,42,0.00,CLR,,0.00,WeatherDisplay:10.37,2013-09-12 20:51:00,
2013-09-12 15:52:00,74.2,49.6,30.02,North,350,4.8,10.4,42,0.00,CLR,,0.00,WeatherDisplay:10.37,2013-09-12 20:52:00,
2013-09-12 15:53:00,74.3,49.7,30.02,WSW,258,4.1,6.9,42,0.00,CLR,,0.00,WeatherDisplay:10.37,2013-09-12 20:53:00,
2013-09-12 15:56:00,74.3,49.1,30.02,NW,318,7.4,12.7,41,0.00,CLR,,0.00,WeatherDisplay:10.37,2013-09-12 20:56:00,
2013-09-12 15:57:00,74.3,49.1,30.02,NW,323,7.1,12.7,41,0.00,CLR,,0.00,WeatherDisplay:10.37,2013-09-12 20:57:00,
2013-09-12 15:58:00,74.2,49.0,30.02,SE,134,5.0,11.5,41,0.00,CLR,,0.00,WeatherDisplay:10.37,2013-09-12 20:58:00,
2013-09-12 15:59:00,74.2,49.6,30.02,NW,316,2.9,8.1,42,0.00,CLR,,0.00,WeatherDisplay:10.37,2013-09-12 20:59:00,
2013-09-12 16:00:00,74.1,49.5,30.02,NNE,21,5.5,11.5,42,0.00,CLR,,0.00,WeatherDisplay:10.37,2013-09-12 21:00:00,
2013-09-12 16:01:00,74.0,49.4,30.02,West,274,4.8,11.5,42,0.00,CLR,,0.00,WeatherDisplay:10.37,2013-09-12 21:01:00,
2013-09-12 16:02:00,74.1,49.5,30.02,NW,308,5.0,11.5,42,0.00,CLR,,0.00,WeatherDisplay:10.37,2013-09-12 21:02:00,
2013-09-12 16:03:00,74.0,48.8,30.02,NE,45,9.0,10.4,41,0.00,CLR,,0.00,WeatherDisplay:10.37,2013-09-12 21:03:00,
2013-09-12 16:04:00,73.8,49.3,30.03,NNE,13,7.1,18.4,42,0.00,CLR,,0.00,WeatherDisplay:10.37,2013-09-12 21:04:00,
2013-09-12 16:05:00,73.6,49.1,30.03,WNW,287,5.1,11.5,42,0.00,CLR,,0.00,WeatherDisplay:10.37,2013-09-12 21:05:00,
2013-09-12 16:06:00,73.4,48.9,30.02,North,357,6.8,12.7,42,0.00,CLR,,0.00,WeatherDisplay:10.37,2013-09-12 21:06:00,
2013-09-12 16:07:00,73.4,48.9,30.03,NNW,332,6.9,12.7,42,0.00,CLR,,0.00,WeatherDisplay:10.37,2013-09-12 21:07:00,
2013-09-12 16:08:00,73.1,48.6,30.03,North,352,5.4,12.7,42,0.00,CLR,,0.00,WeatherDisplay:10.37,2013-09-12 21:08:00,
2013-09-12 16:09:00,72.9,49.1,30.03,West,260,4.1,8.1,43,0.00,CLR,,0.00,WeatherDisplay:10.37,2013-09-12 21:09:00,
2013-09-12 16:10:00,72.6,49.4,30.03,North,8,6.5,11.5,44,0.00,CLR,,0.00,WeatherDisplay:10.37,2013-09-12 21:10:00,
2013-09-12 16:12:00,72.6,49.4,30.03,WNW,301,6.0,8.3,44,0.00,CLR,,0.00,WeatherDisplay:10.37,2013-09-12 21:12:00,
2013-09-12 16:13:00,72.5,48.7,30.03,WNW,292,4.1,9.2,43,0.00,CLR,,0.00,WeatherDisplay:10.37,2013-09-12 21:13:00,
2013-09-12 16:14:00,72.4,49.3,30.03,North,349,2.4,6.6,44,0.00,CLR,,0.00,WeatherDisplay:10.37,2013-09-12 21:14:00,
2013-09-12 16:15:00,72.4,49.3,30.03,NNW,337,3.5,4.6,44,0.00,CLR,,0.00,WeatherDisplay:10.37,2013-09-12 21:15:00,
2013-09-12 16:16:00,72.5,49.3,30.03,North,10,4.6,10.0,44,0.00,CLR,,0.00,WeatherDisplay:10.37,2013-09-12 21:16:00,
2013-09-12 16:17:00,72.4,48.6,30.03,North,10,6.7,11.5,43,0.00,CLR,,0.00,WeatherDisplay:10.37,2013-09-12 21:17:00,
2013-09-12 16:18:00,72.3,47.9,30.03,NW,311,5.0,9.2,42,0.00,CLR,,0.00,WeatherDisplay:10.37,2013-09-12 21:18:00,
2013-09-12 16:20:00,72.4,48.0,30.03,North,360,8.3,11.5,42,0.00,CLR,,0.00,WeatherDisplay:10.37,2013-09-12 21:20:00,
2013-09-12 16:22:00,72.4,48.0,30.03,NNW,335,2.8,12.7,42,0.00,CLR,,0.00,WeatherDisplay:10.37,2013-09-12 21:22:00,
2013-09-12 16:23:00,72.4,48.0,30.03,North,354,5.6,16.1,42,0.00,CLR,,0.00,WeatherDisplay:10.37,2013-09-12 21:23:00,
2013-09-12 16:24:00,72.4,48.0,30.03,NNE,23,6.5,16.1,42,0.00,CLR,,0.00,WeatherDisplay:10.37,2013-09-12 21:24:00,
2013-09-12 16:25:00,72.3,47.9,30.03,NW,306,5.3,9.2,42,0.00,CLR,,0.00,WeatherDisplay:10.37,2013-09-12 21:25:00,
2013-09-12 16:27:00,72.4,48.0,30.02,West,275,2.8,9.2,42,0.00,CLR,,0.00,WeatherDisplay:10.37,2013-09-12 21:27:00,
2013-09-12 16:28:00,72.6,48.8,30.02,NW,316,3.4,4.6,43,0.00,CLR,,0.00,WeatherDisplay:10.37,2013-09-12 21:28:00,
2013-09-12 16:29:00,72.6,48.2,30.03,NW,315,3.3,9.2,42,0.00,CLR,,0.00,WeatherDisplay:10.37,2013-09-12 21:29:00,
2013-09-12 16:31:00,72.5,47.5,30.03,NW,323,6.3,11.5,41,0.00,CLR,,0.00,WeatherDisplay:10.37,2013-09-12 21:31:00,
2013-09-12 16:32:00,72.8,47.7,30.03,North,360,7.0,11.5,41,0.00,CLR,,0.00,WeatherDisplay:10.37,2013-09-12 21:32:00,
2013-09-12 16:33:00,72.6,47.5,30.03,NNW,328,5.0,12.7,41,0.00,CLR,,0.00,WeatherDisplay:10.37,2013-09-12 21:33:00,
2013-09-12 16:35:00,72.8,48.4,30.03,NNW,346,2.4,8.1,42,0.00,CLR,,0.00,WeatherDisplay:10.37,2013-09-12 21:35:00,
2013-09-12 16:36:00,72.8,48.4,30.03,North,352,4.0,5.8,42,0.00,CLR,,0.00,WeatherDisplay:10.37,2013-09-12 21:36:00,
2013-09-12 16:38:00,72.9,48.5,30.03,North,3,2.5,8.1,42,0.00,CLR,,0.00,WeatherDisplay:10.37,2013-09-12 21:38:00,
2013-09-12 16:39:00,72.8,48.4,30.03,NNE,28,5.6,7.7,42,0.00,CLR,,0.00,WeatherDisplay:10.37,2013-09-12 21:39:00,
2013-09-12 16:41:00,72.9,48.5,30.03,South,178,5.1,6.9,42,0.00,CLR,,0.00,WeatherDisplay:10.37,2013-09-12 21:41:00,
2013-09-12 16:43:00,73.1,48.6,30.03,NE,44,5.3,10.4,42,0.00,CLR,,0.00,WeatherDisplay:10.37,2013-09-12 21:43:00,
2013-09-12 16:44:00,73.1,48.6,30.03,WNW,301,5.9,9.2,42,0.00,CLR,,0.00,WeatherDisplay:10.37,2013-09-12 21:44:00,
2013-09-12 16:47:00,72.8,48.4,30.03,North,349,4.5,6.9,42,0.00,CLR,,0.00,WeatherDisplay:10.37,2013-09-12 21:47:00,
2013-09-12 16:48:00,72.7,48.3,30.03,North,353,3.2,5.8,42,0.00,CLR,,0.00,WeatherDisplay:10.37,2013-09-12 21:48:00,
2013-09-12 16:49:00,72.7,48.3,30.03,WSW,243,4.5,8.1,42,0.00,CLR,,0.00,WeatherDisplay:10.37,2013-09-12 21:49:00,
2013-09-12 16:52:00,72.4,48.0,30.03,NW,311,4.3,9.2,42,0.00,CLR,,0.00,WeatherDisplay:10.37,2013-09-12 21:52:00,
2013-09-12 16:53:00,72.4,47.4,30.03,NNW,342,4.6,10.4,41,0.00,CLR,,0.00,WeatherDisplay:10.37,2013-09-12 21:53:00,
2013-09-12 16:54:00,72.2,47.2,30.03,ENE,64,7.3,11.5,41,0.00,CLR,,0.00,WeatherDisplay:10.37,2013-09-12 21:54:00,
2013-09-12 16:58:00,72.1,47.7,30.03,WNW,289,4.3,8.1,42,0.00,CLR,,0.00,WeatherDisplay:10.37,2013-09-12 21:58:00,
2013-09-12 16:59:00,72.0,47.6,30.03,WNW,301,5.7,8.1,42,0.00,CLR,,0.00,WeatherDisplay:10.37,2013-09-12 21:59:00,
2013-09-12 17:03:00,71.9,48.2,30.03,North,8,2.3,4.6,43,0.00,CLR,,0.00,WeatherDisplay:10.37,2013-09-12 22:03:00,
2013-09-12 17:04:00,72.0,48.3,30.03,West,265,3.6,7.6,43,0.00,CLR,,0.00,WeatherDisplay:10.37,2013-09-12 22:04:00,
2013-09-12 17:05:00,71.9,48.2,30.03,WNW,285,5.5,10.4,43,0.00,CLR,,0.00,WeatherDisplay:10.37,2013-09-12 22:05:00,
2013-09-12 17:08:00,71.8,48.1,30.03,North,356,3.4,7.3,43,0.00,CLR,,0.00,WeatherDisplay:10.37,2013-09-12 22:08:00,
2013-09-12 17:09:00,71.7,48.0,30.03,NW,304,3.5,4.6,43,0.00,CLR,,0.00,WeatherDisplay:10.37,2013-09-12 22:09:00,
2013-09-12 17:10:00,71.7,48.0,30.03,NW,320,0.4,8.1,43,0.00,CLR,,0.00,WeatherDisplay:10.37,2013-09-12 22:10:00,
2013-09-12 17:14:00,71.4,47.7,30.03,NW,326,4.5,10.4,43,0.00,CLR,,0.00,WeatherDisplay:10.37,2013-09-12 22:14:00,
2013-09-12 17:15:00,71.2,46.9,30.03,SW,216,5.2,10.4,42,0.00,CLR,,0.00,WeatherDisplay:10.37,2013-09-12 22:15:00,
2013-09-12 17:16:00,71.2,47.6,30.03,West,268,5.4,9.2,43,0.00,CLR,,0.00,WeatherDisplay:10.37,2013-09-12 22:16:00,
2013-09-12 17:17:00,71.2,46.9,30.03,WNW,285,6.5,9.1,42,0.00,CLR,,0.00,WeatherDisplay:10.37,2013-09-12 22:17:00,
2013-09-12 17:19:00,71.0,47.4,30.03,NNW,339,5.1,9.6,43,0.00,CLR,,0.00,WeatherDisplay:10.37,2013-09-12 22:19:00,
2013-09-12 17:20:00,71.0,47.4,30.03,NW,323,5.0,9.2,43,0.00,CLR,,0.00,WeatherDisplay:10.37,2013-09-12 22:20:00,
2013-09-12 17:21:00,70.8,47.2,30.03,West,268,3.2,5.8,43,0.00,CLR,,0.00,WeatherDisplay:10.37,2013-09-12 22:21:00,
2013-09-12 17:22:00,70.9,47.9,30.03,NW,305,2.0,5.8,44,0.00,CLR,,0.00,WeatherDisplay:10.37,2013-09-12 22:22:00,
2013-09-12 17:24:00,70.7,47.7,30.03,North,3,5.3,11.5,44,0.00,CLR,,0.00,WeatherDisplay:10.37,2013-09-12 22:24:00,
2013-09-12 17:25:00,70.7,47.7,30.03,WNW,301,6.2,9.2,44,0.00,CLR,,0.00,WeatherDisplay:10.37,2013-09-12 22:25:00,
2013-09-12 17:27:00,70.5,46.9,30.03,NNE,25,8.0,9.2,43,0.00,CLR,,0.00,WeatherDisplay:10.37,2013-09-12 22:27:00,
2013-09-12 17:28:00,70.4,46.8,30.03,ENE,76,7.1,13.8,43,0.00,CLR,,0.00,WeatherDisplay:10.37,2013-09-12 22:28:00,
2013-09-12 17:29:00,70.5,46.9,30.03,NNW,343,4.5,12.7,43,0.00,CLR,,0.00,WeatherDisplay:10.37,2013-09-12 22:29:00,
2013-09-12 17:30:00,70.3,46.7,30.03,NNW,336,6.7,10.4,43,0.00,CLR,,0.00,WeatherDisplay:10.37,2013-09-12 22:30:00,
2013-09-12 17:32:00,70.1,46.6,30.03,NNW,347,3.5,13.8,43,0.00,CLR,,0.00,WeatherDisplay:10.37,2013-09-12 22:32:00,
2013-09-12 17:34:00,70.0,47.1,30.03,NW,318,2.7,5.8,44,0.00,CLR,,0.00,WeatherDisplay:10.37,2013-09-12 22:34:00,
2013-09-12 17:35:00,69.9,47.6,30.03,NW,319,3.2,4.6,45,0.00,CLR,,0.00,WeatherDisplay:10.37,2013-09-12 22:35:00,
2013-09-12 17:37:00,69.8,47.5,30.03,NW,319,3.8,11.5,45,0.00,CLR,,0.00,WeatherDisplay:10.37,2013-09-12 22:37:00,
2013-09-12 17:39:00,69.6,47.3,30.03,WNW,287,2.8,4.6,45,0.00,CLR,,0.00,WeatherDisplay:10.37,2013-09-12 22:39:00,
2013-09-12 17:40:00,69.6,47.9,30.03,NNW,342,5.2,12.3,46,0.00,CLR,,0.00,WeatherDisplay:10.37,2013-09-12 22:40:00,
2013-09-12 17:42:00,69.6,47.9,30.03,NW,312,5.7,9.2,46,0.00,CLR,,0.00,WeatherDisplay:10.37,2013-09-12 22:42:00,
2013-09-12 17:44:00,69.4,47.7,30.03,NW,319,3.8,7.7,46,0.00,CLR,,0.00,WeatherDisplay:10.37,2013-09-12 22:44:00,
2013-09-12 17:45:00,69.5,47.8,30.03,SW,215,4.8,8.1,46,0.00,CLR,,0.00,WeatherDisplay:10.37,2013-09-12 22:45:00,
2013-09-12 17:47:00,69.4,48.3,30.03,NW,312,3.9,5.8,47,0.00,CLR,,0.00,WeatherDisplay:10.37,2013-09-12 22:47:00,
2013-09-12 17:49:00,69.2,48.1,30.03,WNW,291,2.3,5.8,47,0.00,CLR,,0.00,WeatherDisplay:10.37,2013-09-12 22:49:00,
2013-09-12 17:50:00,69.2,48.1,30.03,North,349,2.6,5.8,47,0.00,CLR,,0.00,WeatherDisplay:10.37,2013-09-12 22:50:00,
2013-09-12 17:51:00,69.1,48.0,30.03,NW,306,5.2,10.4,47,0.00,CLR,,0.00,WeatherDisplay:10.37,2013-09-12 22:51:00,
2013-09-12 17:52:00,68.9,47.8,30.03,NW,323,6.7,9.2,47,0.00,CLR,,0.00,WeatherDisplay:10.37,2013-09-12 22:52:00,
2013-09-12 17:54:00,68.8,47.7,30.03,NNW,329,2.5,4.6,47,0.00,CLR,,0.00,WeatherDisplay:10.37,2013-09-12 22:54:00,
2013-09-12 17:55:00,68.7,48.2,30.03,North,353,4.3,8.1,48,0.00,CLR,,0.00,WeatherDisplay:10.37,2013-09-12 22:55:00,
2013-09-12 17:56:00,68.8,48.3,30.03,North,354,2.4,6.9,48,0.00,CLR,,0.00,WeatherDisplay:10.37,2013-09-12 22:56:00,
2013-09-12 17:57:00,68.7,48.2,30.03,West,271,1.7,2.3,48,0.00,CLR,,0.00,WeatherDisplay:10.37,2013-09-12 22:57:00,
2013-09-12 17:59:00,68.5,48.0,30.03,NNW,346,3.3,8.1,48,0.00,CLR,,0.00,WeatherDisplay:10.37,2013-09-12 22:59:00,
2013-09-12 18:00:00,68.5,48.0,30.03,WSW,246,3.4,6.9,48,0.00,CLR,,0.00,WeatherDisplay:10.37,2013-09-12 23:00:00,
2013-09-12 18:01:00,68.5,48.6,30.03,NW,322,3.2,7.1,49,0.00,CLR,,0.00,WeatherDisplay:10.37,2013-09-12 23:01:00,
2013-09-12 18:02:00,68.4,48.5,30.03,WNW,299,4.7,6.9,49,0.00,CLR,,0.00,WeatherDisplay:10.37,2013-09-12 23:02:00,
2013-09-12 18:03:00,68.4,48.5,30.03,NW,309,3.5,6.9,49,0.00,CLR,,0.00,WeatherDisplay:10.37,2013-09-12 23:03:00,
2013-09-12 18:04:00,68.4,48.5,30.03,NNW,339,4.8,9.2,49,0.00,CLR,,0.00,WeatherDisplay:10.37,2013-09-12 23:04:00,
2013-09-12 18:05:00,68.5,48.6,30.03,NNW,337,2.9,4.6,49,0.00,CLR,,0.00,WeatherDisplay:10.37,2013-09-12 23:05:00,
2013-09-12 18:06:00,68.4,48.5,30.03,North,360,2.9,4.6,49,0.00,CLR,,0.00,WeatherDisplay:10.37,2013-09-12 23:06:00,
2013-09-12 18:07:00,68.4,48.5,30.03,WNW,288,2.3,4.6,49,0.00,CLR,,0.00,WeatherDisplay:10.37,2013-09-12 23:07:00,
2013-09-12 18:08:00,68.3,48.4,30.04,North,349,1.2,3.5,49,0.00,CLR,,0.00,WeatherDisplay:10.37,2013-09-12 23:08:00,
2013-09-12 18:09:00,68.4,49.0,30.04,NW,309,2.4,4.0,50,0.00,CLR,,0.00,WeatherDisplay:10.37,2013-09-12 23:09:00,
2013-09-12 18:10:00,68.3,48.9,30.03,WSW,256,3.3,6.9,50,0.00,CLR,,0.00,WeatherDisplay:10.37,2013-09-12 23:10:00,
2013-09-12 18:11:00,68.3,48.9,30.03,NW,319,0.6,6.9,50,0.00,CLR,,0.00,WeatherDisplay:10.37,2013-09-12 23:11:00,
2013-09-12 18:12:00,68.3,48.9,30.03,NE,35,3.2,5.0,50,0.00,CLR,,0.00,WeatherDisplay:10.37,2013-09-12 23:12:00,
2013-09-12 18:13:00,68.1,48.8,30.04,North,360,5.3,11.0,50,0.00,CLR,,0.00,WeatherDisplay:10.37,2013-09-12 23:13:00,
2013-09-12 18:14:00,68.2,48.3,30.03,NNW,347,7.1,9.2,49,0.00,CLR,,0.00,WeatherDisplay:10.37,2013-09-12 23:14:00,
2013-09-12 18:15:00,68.1,48.2,30.04,NW,325,2.6,4.6,49,0.00,CLR,,0.00,WeatherDisplay:10.37,2013-09-12 23:15:00,
2013-09-12 18:17:00,68.2,48.3,30.04,NNW,335,4.5,6.9,49,0.00,CLR,,0.00,WeatherDisplay:10.37,2013-09-12 23:17:00,
2013-09-12 18:18:00,68.0,48.1,30.04,NNW,344,4.5,11.5,49,0.00,CLR,,0.00,WeatherDisplay:10.37,2013-09-12 23:18:00,
2013-09-12 18:19:00,68.0,48.1,30.04,NNW,328,3.1,9.2,49,0.00,CLR,,0.00,WeatherDisplay:10.37,2013-09-12 23:19:00,
2013-09-12 18:20:00,67.9,48.0,30.04,NW,323,3.3,6.3,49,0.00,CLR,,0.00,WeatherDisplay:10.37,2013-09-12 23:20:00,
2013-09-12 18:21:00,68.0,48.1,30.04,NW,325,5.1,11.5,49,0.00,CLR,,0.00,WeatherDisplay:10.37,2013-09-12 23:21:00,
2013-09-12 18:22:00,67.8,47.9,30.04,NW,312,4.5,11.5,49,0.00,CLR,,0.00,WeatherDisplay:10.37,2013-09-12 23:22:00,
2013-09-12 18:24:00,67.9,48.0,30.04,NNW,330,5.0,13.8,49,0.00,CLR,,0.00,WeatherDisplay:10.37,2013-09-12 23:24:00,
2013-09-12 18:25:00,67.7,47.8,30.04,NNW,336,3.6,6.9,49,0.00,CLR,,0.00,WeatherDisplay:10.37,2013-09-12 23:25:00,
2013-09-12 18:26:00,67.7,47.8,30.04,WSW,257,2.4,6.9,49,0.00,CLR,,0.00,WeatherDisplay:10.37,2013-09-12 23:26:00,
2013-09-12 18:27:00,67.5,47.7,30.04,NW,315,4.3,6.2,49,0.00,CLR,,0.00,WeatherDisplay:10.37,2013-09-12 23:27:00,
2013-09-12 18:29:00,67.5,47.7,30.04,NW,311,3.5,12.7,49,0.00,CLR,,0.00,WeatherDisplay:10.37,2013-09-12 23:29:00,
2013-09-12 18:30:00,67.5,47.7,30.04,NNW,332,3.6,8.1,49,0.00,CLR,,0.00,WeatherDisplay:10.37,2013-09-12 23:30:00,
2013-09-12 18:31:00,67.4,47.6,30.04,NNE,13,3.6,6.9,49,0.00,CLR,,0.00,WeatherDisplay:10.37,2013-09-12 23:31:00,
2013-09-12 18:32:00,67.3,47.5,30.04,West,281,2.2,4.6,49,0.00,CLR,,0.00,WeatherDisplay:10.37,2013-09-12 23:32:00,
2013-09-12 18:35:00,67.2,47.4,30.04,NW,323,4.8,8.1,49,0.00,CLR,,0.00,WeatherDisplay:10.37,2013-09-12 23:35:00,
2013-09-12 18:36:00,67.1,47.3,30.04,North,359,6.2,9.2,49,0.00,CLR,,0.00,WeatherDisplay:10.37,2013-09-12 23:36:00,
2013-09-12 18:38:00,67.1,47.3,30.05,NNE,27,4.6,9.4,49,0.00,CLR,,0.00,WeatherDisplay:10.37,2013-09-12 23:38:00,
2013-09-12 18:40:00,66.9,47.1,30.04,WNW,301,5.5,9.4,49,0.00,CLR,,0.00,WeatherDisplay:10.37,2013-09-12 23:40:00,
2013-09-12 18:41:00,66.8,47.0,30.04,NNW,332,6.4,12.7,49,0.00,CLR,,0.00,WeatherDisplay:10.37,2013-09-12 23:41:00,
2013-09-12 18:43:00,66.7,47.5,30.05,NW,312,3.6,7.8,50,0.00,CLR,,0.00,WeatherDisplay:10.37,2013-09-12 23:43:00,
2013-09-12 18:45:00,66.7,46.9,30.05,NNE,13,3.4,8.1,49,0.00,CLR,,0.00,WeatherDisplay:10.37,2013-09-12 23:45:00,
2013-09-12 18:46:00,66.6,47.4,30.05,NW,315,2.5,8.1,50,0.00,CLR,,0.00,WeatherDisplay:10.37,2013-09-12 23:46:00,
2013-09-12 18:49:00,66.3,47.1,30.05,WNW,285,1.9,8.1,50,0.00,CLR,,0.00,WeatherDisplay:10.37,2013-09-12 23:49:00,
2013-09-12 18:50:00,66.3,47.1,30.05,West,270,2.7,3.5,50,0.00,CLR,,0.00,WeatherDisplay:10.37,2013-09-12 23:50:00,
2013-09-12 18:51:00,66.3,47.1,30.05,West,260,3.2,4.8,50,0.00,CLR,,0.00,WeatherDisplay:10.37,2013-09-12 23:51:00,
2013-09-12 18:54:00,66.1,46.9,30.05,North,349,3.0,8.1,50,0.00,CLR,,0.00,WeatherDisplay:10.37,2013-09-12 23:54:00,
2013-09-12 18:56:00,66.1,46.4,30.05,NW,326,5.2,9.2,49,0.00,CLR,,0.00,WeatherDisplay:10.37,2013-09-12 23:56:00,
2013-09-12 18:57:00,65.9,46.7,30.05,NNW,333,2.0,8.1,50,0.00,CLR,,0.00,WeatherDisplay:10.37,2013-09-12 23:57:00,
2013-09-12 18:59:00,65.9,46.7,30.05,NW,304,2.6,4.6,50,0.00,CLR,,0.00,WeatherDisplay:10.37,2013-09-12 23:59:00,
2013-09-12 19:01:00,65.7,46.5,30.05,NW,322,2.6,5.8,50,0.00,CLR,,0.00,WeatherDisplay:10.37,2013-09-13 00:01:00,
2013-09-12 19:02:00,65.8,46.6,30.05,WNW,289,2.0,5.8,50,0.00,CLR,,0.00,WeatherDisplay:10.37,2013-09-13 00:02:00,
2013-09-12 19:03:00,65.6,46.5,30.05,NNW,330,1.9,5.8,50,0.00,CLR,,0.00,WeatherDisplay:10.37,2013-09-13 00:03:00,
2013-09-12 19:05:00,65.6,47.0,30.05,NNW,332,3.7,4.7,51,0.00,CLR,,0.00,WeatherDisplay:10.37,2013-09-13 00:05:00,
2013-09-12 19:06:00,65.4,46.8,30.05,NW,312,4.0,5.8,51,0.00,CLR,,0.00,WeatherDisplay:10.37,2013-09-13 00:06:00,
2013-09-12 19:07:00,65.2,46.6,30.05,NW,312,3.2,8.1,51,0.00,CLR,,0.00,WeatherDisplay:10.37,2013-09-13 00:07:00,
2013-09-12 19:08:00,65.2,46.6,30.05,NNW,333,1.7,4.6,51,0.00,CLR,,0.00,WeatherDisplay:10.37,2013-09-13 00:08:00,
2013-09-12 19:10:00,65.1,46.5,30.05,NW,318,2.2,4.6,51,0.00,CLR,,0.00,WeatherDisplay:10.37,2013-09-13 00:10:00,
2013-09-12 19:12:00,65.1,47.0,30.05,NNW,344,2.4,5.8,52,0.00,CLR,,0.00,WeatherDisplay:10.37,2013-09-13 00:12:00,
2013-09-12 19:13:00,64.9,46.8,30.05,NNW,329,1.6,6.9,52,0.00,CLR,,0.00,WeatherDisplay:10.37,2013-09-13 00:13:00,
2013-09-12 19:14:00,64.8,46.8,30.05,NW,320,4.2,5.8,52,0.00,CLR,,0.00,WeatherDisplay:10.37,2013-09-13 00:14:00,
2013-09-12 19:16:00,64.7,46.7,30.06,North,11,2.6,4.6,52,0.00,CLR,,0.00,WeatherDisplay:10.37,2013-09-13 00:16:00,
2013-09-12 19:17:00,64.7,46.7,30.06,NW,306,1.1,5.8,52,0.00,CLR,,0.00,WeatherDisplay:10.37,2013-09-13 00:17:00,
2013-09-12 19:18:00,64.6,46.6,30.06,NNW,339,2.6,3.5,52,0.00,CLR,,0.00,WeatherDisplay:10.37,2013-09-13 00:18:00,
2013-09-12 19:19:00,64.6,46.6,30.06,NNW,346,3.6,5.8,52,0.00,CLR,,0.00,WeatherDisplay:10.37,2013-09-13 00:19:00,
2013-09-12 19:21:00,64.4,46.9,30.06,NW,318,1.9,4.8,53,0.00,CLR,,0.00,WeatherDisplay:10.37,2013-09-13 00:21:00,
2013-09-12 19:22:00,64.3,46.8,30.06,NNW,343,2.8,4.6,53,0.00,CLR,,0.00,WeatherDisplay:10.37,2013-09-13 00:22:00,
2013-09-12 19:23:00,64.3,46.8,30.06,NW,320,1.3,3.5,53,0.00,CLR,,0.00,WeatherDisplay:10.37,2013-09-13 00:23:00,
2013-09-12 19:24:00,64.2,46.7,30.06,North,350,2.1,3.5,53,0.00,CLR,,0.00,WeatherDisplay:10.37,2013-09-13 00:24:00,
2013-09-12 19:26:00,64.1,46.6,30.06,NNW,346,2.7,5.8,53,0.00,CLR,,0.00,WeatherDisplay:10.37,2013-09-13 00:26:00,
2013-09-12 19:27:00,64.0,46.5,30.06,NNE,24,2.8,6.1,53,0.00,CLR,,0.00,WeatherDisplay:10.37,2013-09-13 00:27:00,
2013-09-12 19:29:00,63.9,46.4,30.06,North,357,0.6,3.9,53,0.00,CLR,,0.00,WeatherDisplay:10.37,2013-09-13 00:29:00,
2013-09-12 19:30:00,63.7,46.7,30.06,West,280,1.5,3.5,54,0.00,CLR,,0.00,WeatherDisplay:10.37,2013-09-13 00:30:00,
2013-09-12 19:31:00,63.8,46.8,30.06,NNW,328,1.6,3.5,54,0.00,CLR,,0.00,WeatherDisplay:10.37,2013-09-13 00:31:00,
2013-09-12 19:32:00,63.7,46.7,30.06,NNW,337,0.9,3.5,54,0.00,CLR,,0.00,WeatherDisplay:10.37,2013-09-13 00:32:00,
2013-09-12 19:34:00,63.5,46.6,30.06,NNE,13,2.0,3.5,54,0.00,CLR,,0.00,WeatherDisplay:10.37,2013-09-13 00:34:00,
2013-09-12 19:37:00,63.3,46.4,30.06,NNE,30,1.1,4.6,54,0.00,CLR,,0.00,WeatherDisplay:10.37,2013-09-13 00:37:00,
2013-09-12 19:40:00,63.1,46.7,30.06,NNE,32,1.1,3.2,55,0.00,CLR,,0.00,WeatherDisplay:10.37,2013-09-13 00:40:00,
2013-09-12 19:42:00,62.9,46.5,30.06,NW,312,1.4,2.3,55,0.00,CLR,,0.00,WeatherDisplay:10.37,2013-09-13 00:42:00,
2013-09-12 19:43:00,62.9,46.5,30.06,North,350,1.6,3.5,55,0.00,CLR,,0.00,WeatherDisplay:10.37,2013-09-13 00:43:00,
2013-09-12 19:45:00,62.7,46.3,30.06,NW,312,0.2,4.6,55,0.00,CLR,,0.00,WeatherDisplay:10.37,2013-09-13 00:45:00,
2013-09-12 19:46:00,62.6,46.7,30.06,NNW,339,1.0,2.3,56,0.00,CLR,,0.00,WeatherDisplay:10.37,2013-09-13 00:46:00,
2013-09-12 19:47:00,62.6,46.7,30.07,NNW,333,0.6,2.3,56,0.00,CLR,,0.00,WeatherDisplay:10.37,2013-09-13 00:47:00,
2013-09-12 19:48:00,62.6,46.7,30.07,West,264,0.9,2.3,56,0.00,CLR,,0.00,WeatherDisplay:10.37,2013-09-13 00:48:00,
2013-09-12 19:51:00,62.4,46.5,30.07,WNW,287,0.7,2.3,56,0.00,CLR,,0.00,WeatherDisplay:10.37,2013-09-13 00:51:00,
2013-09-12 19:52:00,62.3,46.4,30.07,NW,318,1.9,3.5,56,0.00,CLR,,0.00,WeatherDisplay:10.37,2013-09-13 00:52:00,
2013-09-12 19:53:00,62.2,46.3,30.07,NW,315,1.6,3.5,56,0.00,CLR,,0.00,WeatherDisplay:10.37,2013-09-13 00:53:00,
2013-09-12 19:56:00,61.9,46.5,30.07,NNW,330,1.4,1.4,57,0.00,CLR,,0.00,WeatherDisplay:10.37,2013-09-13 00:56:00,
2013-09-12 19:57:00,62.1,46.7,30.07,WNW,298,0.3,3.5,57,0.00,CLR,,0.00,WeatherDisplay:10.37,2013-09-13 00:57:00,
2013-09-12 19:58:00,61.8,46.4,30.07,WNW,292,0.4,1.2,57,0.00,CLR,,0.00,WeatherDisplay:10.37,2013-09-13 00:58:00,
2013-09-12 19:59:00,61.9,46.5,30.07,NW,323,0.9,1.3,57,0.00,CLR,,0.00,WeatherDisplay:10.37,2013-09-13 00:59:00,
2013-09-12 20:02:00,61.6,46.7,30.08,North,354,1.0,2.3,58,0.00,CLR,,0.00,WeatherDisplay:10.37,2013-09-13 01:02:00,
2013-09-12 20:03:00,61.5,46.6,30.08,North,354,0.0,1.2,58,0.00,CLR,,0.00,WeatherDisplay:10.37,2013-09-13 01:03:00,
2013-09-12 20:05:00,61.5,46.6,30.08,North,357,0.5,2.3,58,0.00,CLR,,0.00,WeatherDisplay:10.37,2013-09-13 01:05:00,
2013-09-12 20:07:00,61.2,46.3,30.08,North,3,1.0,3.5,58,0.00,CLR,,0.00,WeatherDisplay:10.37,2013-09-13 01:07:00,
2013-09-12 20:08:00,61.1,46.2,30.08,North,3,0.0,2.3,58,0.00,CLR,,0.00,WeatherDisplay:10.37,2013-09-13 01:08:00,
2013-09-12 20:09:00,61.0,46.6,30.08,North,3,0.0,0.0,59,0.00,CLR,,0.00,WeatherDisplay:10.37,2013-09-13 01:09:00,
2013-09-12 20:10:00,60.9,46.5,30.08,North,3,0.0,0.0,59,0.00,CLR,,0.00,WeatherDisplay:10.37,2013-09-13 01:10:00,
2013-09-12 20:12:00,60.9,46.5,30.08,North,3,0.0,0.0,59,0.00,CLR,,0.00,WeatherDisplay:10.37,2013-09-13 01:12:00,
2013-09-12 20:13:00,60.7,46.3,30.08,North,3,0.0,0.0,59,0.00,CLR,,0.00,WeatherDisplay:10.37,2013-09-13 01:13:00,
2013-09-12 20:14:00,60.7,46.3,30.08,North,3,0.0,0.0,59,0.00,CLR,,0.00,WeatherDisplay:10.37,2013-09-13 01:14:00,
2013-09-12 20:15:00,60.6,46.2,30.08,North,3,0.0,0.0,59,0.00,CLR,,0.00,WeatherDisplay:10.37,2013-09-13 01:15:00,
2013-09-12 20:17:00,60.5,46.5,30.08,North,3,0.0,0.0,60,0.00,CLR,,0.00,WeatherDisplay:10.37,2013-09-13 01:17:00,
2013-09-12 20:18:00,60.4,46.4,30.08,North,3,0.0,0.0,60,0.00,CLR,,0.00,WeatherDisplay:10.37,2013-09-13 01:18:00,
2013-09-12 20:19:00,60.5,46.5,30.08,North,3,0.0,0.0,60,0.00,CLR,,0.00,WeatherDisplay:10.37,2013-09-13 01:19:00,
2013-09-12 20:20:00,60.4,46.4,30.08,North,3,0.0,0.0,60,0.00,CLR,,0.00,WeatherDisplay:10.37,2013-09-13 01:20:00,
2013-09-12 20:22:00,60.2,46.3,30.08,NW,322,0.6,2.3,60,0.00,CLR,,0.00,WeatherDisplay:10.37,2013-09-13 01:22:00,
2013-09-12 20:23:00,60.0,46.1,30.08,NW,322,0.0,0.0,60,0.00,CLR,,0.00,WeatherDisplay:10.37,2013-09-13 01:23:00,
2013-09-12 20:24:00,60.2,46.7,30.08,WNW,292,0.4,1.9,61,0.00,CLR,,0.00,WeatherDisplay:10.37,2013-09-13 01:24:00,
2013-09-12 20:25:00,60.0,46.5,30.08,NNE,16,1.2,2.3,61,0.00,CLR,,0.00,WeatherDisplay:10.37,2013-09-13 01:25:00,
2013-09-12 20:27:00,59.8,46.3,30.08,NNE,16,0.0,0.0,61,0.00,CLR,,0.00,WeatherDisplay:10.37,2013-09-13 01:27:00,
2013-09-12 20:28:00,59.7,46.2,30.08,NNE,16,0.0,0.0,61,0.00,CLR,,0.00,WeatherDisplay:10.37,2013-09-13 01:28:00,
2013-09-12 20:30:00,59.6,46.6,30.08,NNW,347,0.8,2.4,62,0.00,CLR,,0.00,WeatherDisplay:10.37,2013-09-13 01:30:00,
2013-09-12 20:32:00,59.5,46.5,30.08,NW,315,0.3,2.3,62,0.00,CLR,,0.00,WeatherDisplay:10.37,2013-09-13 01:32:00,
2013-09-12 20:33:00,59.5,46.5,30.08,NW,315,0.2,1.2,62,0.00,CLR,,0.00,WeatherDisplay:10.37,2013-09-13 01:33:00,
2013-09-12 20:34:00,59.4,46.4,30.08,NNE,27,0.2,1.2,62,0.00,CLR,,0.00,WeatherDisplay:10.37,2013-09-13 01:34:00,
2013-09-12 20:35:00,59.5,46.5,30.08,WNW,289,1.7,2.3,62,0.00,CLR,,0.00,WeatherDisplay:10.37,2013-09-13 01:35:00,
2013-09-12 20:36:00,59.4,46.4,30.08,NW,311,1.2,2.3,62,0.00,CLR,,0.00,WeatherDisplay:10.37,2013-09-13 01:36:00,
2013-09-12 20:37:00,59.4,46.4,30.09,North,350,2.2,2.3,62,0.00,CLR,,0.00,WeatherDisplay:10.37,2013-09-13 01:37:00,
2013-09-12 20:38:00,59.5,46.9,30.09,North,354,0.7,3.5,63,0.00,CLR,,0.00,WeatherDisplay:10.37,2013-09-13 01:38:00,
2013-09-12 20:40:00,59.4,46.8,30.09,NW,305,0.6,3.5,63,0.00,CLR,,0.00,WeatherDisplay:10.37,2013-09-13 01:40:00,
2013-09-12 20:41:00,59.3,46.7,30.09,North,360,1.3,3.0,63,0.00,CLR,,0.00,WeatherDisplay:10.37,2013-09-13 01:41:00,
2013-09-12 20:42:00,59.3,46.7,30.09,NNW,343,2.6,4.6,63,0.00,CLR,,0.00,WeatherDisplay:10.37,2013-09-13 01:42:00,
2013-09-12 20:43:00,59.3,46.7,30.09,NNW,342,1.3,2.3,63,0.00,CLR,,0.00,WeatherDisplay:10.37,2013-09-13 01:43:00,
2013-09-12 20:46:00,59.3,46.7,30.09,NW,325,0.3,1.2,63,0.00,CLR,,0.00,WeatherDisplay:10.37,2013-09-13 01:46:00,
2013-09-12 20:47:00,59.2,46.6,30.09,NW,325,0.0,0.0,63,0.00,CLR,,0.00,WeatherDisplay:10.37,2013-09-13 01:47:00,
2013-09-12 20:48:00,59.2,46.6,30.09,NW,325,0.0,0.0,63,0.00,CLR,,0.00,WeatherDisplay:10.37,2013-09-13 01:48:00,
2013-09-12 20:49:00,59.1,46.5,30.09,NW,325,0.0,0.0,63,0.00,CLR,,0.00,WeatherDisplay:10.37,2013-09-13 01:49:00,
2013-09-12 20:51:00,59.2,46.6,30.09,NW,325,0.0,0.0,63,0.00,CLR,,0.00,WeatherDisplay:10.37,2013-09-13 01:51:00,
2013-09-12 20:52:00,59.0,46.8,30.09,NW,325,0.0,0.0,64,0.00,CLR,,0.00,WeatherDisplay:10.37,2013-09-13 01:52:00,
2013-09-12 20:53:00,59.0,46.8,30.09,NW,325,0.0,0.0,64,0.00,CLR,,0.00,WeatherDisplay:10.37,2013-09-13 01:53:00,
2013-09-12 20:55:00,58.9,46.7,30.09,NNW,347,2.1,5.8,64,0.00,CLR,,0.00,WeatherDisplay:10.37,2013-09-13 01:55:00,
2013-09-12 20:56:00,58.9,46.7,30.09,NW,319,1.9,5.8,64,0.00,CLR,,0.00,WeatherDisplay:10.37,2013-09-13 01:56:00,
2013-09-12 20:57:00,58.9,46.7,30.09,North,0,0.0,0.0,64,0.00,CLR,,0.00,WeatherDisplay:10.37,2013-09-13 01:57:00,
2013-09-12 20:58:00,58.9,46.7,30.09,North,0,0.0,0.0,64,0.00,CLR,,0.00,WeatherDisplay:10.37,2013-09-13 01:58:00,
2013-09-12 20:59:00,58.8,46.6,30.09,North,0,0.0,0.0,64,0.00,CLR,,0.00,WeatherDisplay:10.37,2013-09-13 01:59:00,
2013-09-12 21:00:00,58.8,46.6,30.09,North,0,0.0,0.0,64,0.00,CLR,,0.00,WeatherDisplay:10.37,2013-09-13 02:00:00,
2013-09-12 21:01:00,58.8,46.6,30.09,North,0,0.0,0.0,64,0.00,CLR,,0.00,WeatherDisplay:10.37,2013-09-13 02:01:00,
2013-09-12 21:02:00,58.8,46.6,30.09,North,0,0.0,0.0,64,0.00,CLR,,0.00,WeatherDisplay:10.37,2013-09-13 02:02:00,
2013-09-12 21:03:00,58.7,47.0,30.09,NNW,347,2.0,3.5,65,0.00,CLR,,0.00,WeatherDisplay:10.37,2013-09-13 02:03:00,
2013-09-12 21:04:00,58.8,47.1,30.09,WNW,288,2.5,4.6,65,0.00,CLR,,0.00,WeatherDisplay:10.37,2013-09-13 02:04:00,
2013-09-12 21:05:00,58.8,47.1,30.09,NNE,17,1.3,4.6,65,0.00,CLR,,0.00,WeatherDisplay:10.37,2013-09-13 02:05:00,
2013-09-12 21:06:00,58.7,47.0,30.09,North,360,0.2,4.6,65,0.00,CLR,,0.00,WeatherDisplay:10.37,2013-09-13 02:06:00,
2013-09-12 21:07:00,58.8,47.1,30.09,North,360,0.2,1.2,65,0.00,CLR,,0.00,WeatherDisplay:10.37,2013-09-13 02:07:00,
2013-09-12 21:08:00,58.7,47.0,30.09,NNW,329,1.5,4.6,65,0.00,CLR,,0.00,WeatherDisplay:10.37,2013-09-13 02:08:00,
2013-09-12 21:09:00,58.7,47.0,30.09,NNW,329,1.3,4.6,65,0.00,CLR,,0.00,WeatherDisplay:10.37,2013-09-13 02:09:00,
2013-09-12 21:11:00,58.8,47.1,30.09,NNW,329,0.0,0.0,65,0.00,CLR,,0.00,WeatherDisplay:10.37,2013-09-13 02:11:00,
2013-09-12 21:12:00,58.7,47.0,30.09,NNW,329,0.0,0.0,65,0.00,CLR,,0.00,WeatherDisplay:10.37,2013-09-13 02:12:00,
2013-09-12 21:13:00,58.8,47.1,30.09,West,275,0.8,3.5,65,0.00,CLR,,0.00,WeatherDisplay:10.37,2013-09-13 02:13:00,
2013-09-12 21:14:00,58.5,46.8,30.09,NNW,339,0.4,1.2,65,0.00,CLR,,0.00,WeatherDisplay:10.37,2013-09-13 02:14:00,
2013-09-12 21:16:00,58.6,46.9,30.09,North,10,2.2,5.8,65,0.00,CLR,,0.00,WeatherDisplay:10.37,2013-09-13 02:16:00,
2013-09-12 21:17:00,58.6,46.9,30.09,NW,311,3.2,5.8,65,0.00,CLR,,0.00,WeatherDisplay:10.37,2013-09-13 02:17:00,
2013-09-12 21:18:00,58.5,46.8,30.09,North,4,2.8,6.9,65,0.00,CLR,,0.00,WeatherDisplay:10.37,2013-09-13 02:18:00,
2013-09-12 21:19:00,58.5,46.8,30.09,NW,318,1.3,4.8,65,0.00,CLR,,0.00,WeatherDisplay:10.37,2013-09-13 02:19:00,
2013-09-12 21:20:00,58.5,46.8,30.09,North,359,1.8,5.0,65,0.00,CLR,,0.00,WeatherDisplay:10.37,2013-09-13 02:20:00,
2013-09-12 21:22:00,58.6,46.9,30.09,North,359,0.3,2.3,65,0.00,CLR,,0.00,WeatherDisplay:10.37,2013-09-13 02:22:00,
2013-09-12 21:23:00,58.6,46.9,30.09,NNE,30,4.9,4.9,65,0.00,CLR,,0.00,WeatherDisplay:10.37,2013-09-13 02:23:00,
2013-09-12 21:25:00,58.7,47.0,30.09,NW,322,1.8,4.6,65,0.00,CLR,,0.00,WeatherDisplay:10.37,2013-09-13 02:25:00,
2013-09-12 21:27:00,58.7,47.0,30.09,NNW,337,1.6,3.5,65,0.00,CLR,,0.00,WeatherDisplay:10.37,2013-09-13 02:27:00,
2013-09-12 21:28:00,58.7,47.0,30.09,North,3,1.8,3.5,65,0.00,CLR,,0.00,WeatherDisplay:10.37,2013-09-13 02:28:00,
2013-09-12 21:30:00,58.8,47.1,30.09,WNW,298,0.0,1.2,65,0.00,CLR,,0.00,WeatherDisplay:10.37,2013-09-13 02:30:00,
2013-09-12 21:31:00,58.8,47.1,30.09,North,10,2.4,3.5,65,0.00,CLR,,0.00,WeatherDisplay:10.37,2013-09-13 02:31:00,
2013-09-12 21:32:00,58.9,47.2,30.09,NW,313,2.7,6.9,65,0.00,CLR,,0.00,WeatherDisplay:10.37,2013-09-13 02:32:00,
2013-09-12 21:33:00,58.8,47.1,30.09,NNW,340,2.3,3.5,65,0.00,CLR,,0.00,WeatherDisplay:10.37,2013-09-13 02:33:00,
2013-09-12 21:34:00,58.7,47.0,30.09,NNW,330,2.6,4.6,65,0.00,CLR,,0.00,WeatherDisplay:10.37,2013-09-13 02:34:00,
2013-09-12 21:35:00,58.7,47.0,30.09,North,0,3.3,5.8,65,0.00,CLR,,0.00,WeatherDisplay:10.37,2013-09-13 02:35:00,
2013-09-12 21:36:00,58.8,47.1,30.09,ENE,59,2.3,5.8,65,0.00,CLR,,0.00,WeatherDisplay:10.37,2013-09-13 02:36:00,
2013-09-12 21:37:00,58.8,47.1,30.09,NNE,13,1.0,5.7,65,0.00,CLR,,0.00,WeatherDisplay:10.37,2013-09-13 02:37:00,
2013-09-12 21:38:00,58.8,47.1,30.09,North,3,2.8,5.8,65,0.00,CLR,,0.00,WeatherDisplay:10.37,2013-09-13 02:38:00,
2013-09-12 21:40:00,58.8,47.1,30.09,NE,37,3.3,3.5,65,0.00,CLR,,0.00,WeatherDisplay:10.37,2013-09-13 02:40:00,
2013-09-12 21:42:00,58.8,47.1,30.09,ENE,66,3.3,4.6,65,0.00,CLR,,0.00,WeatherDisplay:10.37,2013-09-13 02:42:00,
2013-09-12 21:43:00,58.8,47.1,30.09,North,3,3.3,6.9,65,0.00,CLR,,0.00,WeatherDisplay:10.37,2013-09-13 02:43:00,
2013-09-12 21:45:00,58.9,47.2,30.09,NNE,30,3.3,5.8,65,0.00,CLR,,0.00,WeatherDisplay:10.37,2013-09-13 02:45:00,
2013-09-12 21:48:00,58.9,47.2,30.09,East,95,3.2,8.1,65,0.00,CLR,,0.00,WeatherDisplay:10.37,2013-09-13 02:48:00,
2013-09-12 21:50:00,58.9,47.2,30.09,NNE,27,1.4,3.5,65,0.00,CLR,,0.00,WeatherDisplay:10.37,2013-09-13 02:50:00,
2013-09-12 21:51:00,58.9,47.2,30.09,NNE,27,1.4,3.5,65,0.00,CLR,,0.00,WeatherDisplay:10.37,2013-09-13 02:51:00,
2013-09-12 21:53:00,59.0,47.2,30.09,NE,48,2.0,5.6,65,0.00,CLR,,0.00,WeatherDisplay:10.37,2013-09-13 02:53:00,
2013-09-12 21:54:00,59.0,47.2,30.09,ENE,58,0.5,5.8,65,0.00,CLR,,0.00,WeatherDisplay:10.37,2013-09-13 02:54:00,
2013-09-12 21:55:00,59.0,47.2,30.09,WNW,296,1.8,5.8,65,0.00,CLR,,0.00,WeatherDisplay:10.37,2013-09-13 02:55:00,
2013-09-12 21:56:00,59.1,47.3,30.09,North,4,2.3,5.8,65,0.00,CLR,,0.00,WeatherDisplay:10.37,2013-09-13 02:56:00,
2013-09-12 21:58:00,59.0,47.2,30.09,NNW,330,1.3,6.9,65,0.00,CLR,,0.00,WeatherDisplay:10.37,2013-09-13 02:58:00,
2013-09-12 21:59:00,59.0,47.2,30.09,NNE,17,4.6,6.9,65,0.00,CLR,,0.00,WeatherDisplay:10.37,2013-09-13 02:59:00,
2013-09-12 22:01:00,59.0,47.2,30.10,North,360,3.1,5.8,65,0.00,CLR,,0.00,WeatherDisplay:10.37,2013-09-13 03:01:00,
2013-09-12 22:02:00,59.0,47.2,30.10,North,349,1.7,4.6,65,0.00,CLR,,0.00,WeatherDisplay:10.37,2013-09-13 03:02:00,
2013-09-12 22:03:00,59.0,47.2,30.10,NE,51,2.6,4.6,65,0.00,CLR,,0.00,WeatherDisplay:10.37,2013-09-13 03:03:00,
2013-09-12 22:04:00,59.0,46.8,30.10,East,100,1.4,4.6,64,0.00,CLR,,0.00,WeatherDisplay:10.37,2013-09-13 03:04:00,
2013-09-12 22:06:00,59.0,46.8,30.10,North,4,3.4,5.8,64,0.00,CLR,,0.00,WeatherDisplay:10.37,2013-09-13 03:06:00,
2013-09-12 22:08:00,59.0,46.8,30.10,North,4,0.7,4.6,64,0.00,CLR,,0.00,WeatherDisplay:10.37,2013-09-13 03:08:00,
2013-09-12 22:09:00,59.0,46.8,30.10,NE,56,0.6,2.3,64,0.00,CLR,,0.00,WeatherDisplay:10.37,2013-09-13 03:09:00,
2013-09-12 22:10:00,59.0,46.8,30.10,ENE,71,2.0,5.8,64,0.00,CLR,,0.00,WeatherDisplay:10.37,2013-09-13 03:10:00,
2013-09-12 22:11:00,58.9,46.7,30.10,North,0,2.1,9.2,64,0.00,CLR,,0.00,WeatherDisplay:10.37,2013-09-13 03:11:00,
2013-09-12 22:13:00,58.9,46.7,30.10,ENE,75,2.0,2.3,64,0.00,CLR,,0.00,WeatherDisplay:10.37,2013-09-13 03:13:00,
2013-09-12 22:14:00,58.9,46.7,30.10,NNE,25,2.2,6.9,64,0.00,CLR,,0.00,WeatherDisplay:10.37,2013-09-13 03:14:00,
2013-09-12 22:15:00,58.9,46.7,30.10,NNE,20,1.9,6.9,64,0.00,CLR,,0.00,WeatherDisplay:10.37,2013-09-13 03:15:00,
2013-09-12 22:16:00,58.9,47.2,30.10,NNE,14,3.2,4.6,65,0.00,CLR,,0.00,WeatherDisplay:10.37,2013-09-13 03:16:00,
2013-09-12 22:18:00,58.8,47.1,30.10,East,97,1.2,3.5,65,0.00,CLR,,0.00,WeatherDisplay:10.37,2013-09-13 03:18:00,
2013-09-12 22:20:00,58.7,47.0,30.10,East,92,1.4,3.5,65,0.00,CLR,,0.00,WeatherDisplay:10.37,2013-09-13 03:20:00,
2013-09-12 22:21:00,58.8,47.1,30.10,NE,34,1.1,3.5,65,0.00,CLR,,0.00,WeatherDisplay:10.37,2013-09-13 03:21:00,
2013-09-12 22:23:00,58.7,47.0,30.10,NNE,20,2.2,6.9,65,0.00,CLR,,0.00,WeatherDisplay:10.37,2013-09-13 03:23:00,
2013-09-12 22:25:00,58.7,47.0,30.10,ENE,71,1.3,4.6,65,0.00,CLR,,0.00,WeatherDisplay:10.37,2013-09-13 03:25:00,
2013-09-12 22:26:00,58.5,46.8,30.10,ENE,69,2.2,4.6,65,0.00,CLR,,0.00,WeatherDisplay:10.37,2013-09-13 03:26:00,
2013-09-12 22:27:00,58.5,46.8,30.10,North,0,2.7,5.8,65,0.00,CLR,,0.00,WeatherDisplay:10.37,2013-09-13 03:27:00,
2013-09-12 22:29:00,58.3,46.6,30.11,NNE,25,2.3,5.8,65,0.00,CLR,,0.00,WeatherDisplay:10.37,2013-09-13 03:29:00,
2013-09-12 22:30:00,58.3,46.6,30.11,ENE,72,3.3,4.2,65,0.00,CLR,,0.00,WeatherDisplay:10.37,2013-09-13 03:30:00,
2013-09-12 22:31:00,58.3,46.6,30.11,NNE,30,2.8,4.6,65,0.00,CLR,,0.00,WeatherDisplay:10.37,2013-09-13 03:31:00,
2013-09-12 22:32:00,58.3,46.6,30.11,NNE,17,2.9,4.6,65,0.00,CLR,,0.00,WeatherDisplay:10.37,2013-09-13 03:32:00,
2013-09-12 22:34:00,58.2,46.9,30.11,ENE,61,1.2,4.6,66,0.00,CLR,,0.00,WeatherDisplay:10.37,2013-09-13 03:34:00,
2013-09-12 22:35:00,58.1,46.8,30.11,North,6,0.2,3.1,66,0.00,CLR,,0.00,WeatherDisplay:10.37,2013-09-13 03:35:00,
2013-09-12 22:37:00,58.0,46.7,30.11,WNW,282,1.8,3.5,66,0.00,CLR,,0.00,WeatherDisplay:10.37,2013-09-13 03:37:00,
2013-09-12 22:39:00,58.0,46.7,30.11,North,11,0.5,2.3,66,0.00,CLR,,0.00,WeatherDisplay:10.37,2013-09-13 03:39:00,
2013-09-12 22:40:00,57.9,46.6,30.11,NNW,344,2.3,3.5,66,0.00,CLR,,0.00,WeatherDisplay:10.37,2013-09-13 03:40:00,
2013-09-12 22:42:00,57.9,46.6,30.11,NNE,30,1.3,2.3,66,0.00,CLR,,0.00,WeatherDisplay:10.37,2013-09-13 03:42:00,
2013-09-12 22:44:00,57.8,46.5,30.11,NNE,16,0.2,1.2,66,0.00,CLR,,0.00,WeatherDisplay:10.37,2013-09-13 03:44:00,
2013-09-12 22:45:00,57.8,46.5,30.11,NW,309,2.0,3.5,66,0.00,CLR,,0.00,WeatherDisplay:10.37,2013-09-13 03:45:00,
2013-09-12 22:47:00,57.7,46.4,30.11,ENE,61,0.8,3.5,66,0.00,CLR,,0.00,WeatherDisplay:10.37,2013-09-13 03:47:00,
2013-09-12 22:49:00,57.5,46.6,30.11,WNW,288,0.1,1.2,67,0.00,CLR,,0.00,WeatherDisplay:10.37,2013-09-13 03:49:00,
2013-09-12 22:51:00,57.5,46.6,30.11,ENE,72,0.5,1.2,67,0.00,CLR,,0.00,WeatherDisplay:10.37,2013-09-13 03:51:00,
2013-09-12 22:52:00,57.3,46.4,30.11,NNW,347,2.2,4.3,67,0.00,CLR,,0.00,WeatherDisplay:10.37,2013-09-13 03:52:00,
2013-09-12 22:53:00,57.3,46.4,30.11,NNW,337,1.7,4.6,67,0.00,CLR,,0.00,WeatherDisplay:10.37,2013-09-13 03:53:00,
2013-09-12 22:55:00,57.1,46.2,30.11,NNE,17,0.7,1.4,67,0.00,CLR,,0.00,WeatherDisplay:10.37,2013-09-13 03:55:00,
2013-09-12 22:56:00,57.1,46.6,30.12,NNW,346,2.2,4.6,68,0.00,CLR,,0.00,WeatherDisplay:10.37,2013-09-13 03:56:00,
2013-09-12 22:58:00,57.0,46.5,30.12,North,10,1.8,4.6,68,0.00,CLR,,0.00,WeatherDisplay:10.37,2013-09-13 03:58:00,
2013-09-12 23:01:00,57.0,46.5,30.12,North,10,1.5,5.8,68,0.00,CLR,,0.00,WeatherDisplay:10.37,2013-09-13 04:01:00,
2013-09-12 23:02:00,56.8,46.3,30.12,NW,315,0.6,3.5,68,0.00,CLR,,0.00,WeatherDisplay:10.37,2013-09-13 04:02:00,
2013-09-12 23:04:00,56.7,46.3,30.12,WNW,284,0.5,3.5,68,0.00,CLR,,0.00,WeatherDisplay:10.37,2013-09-13 04:04:00,
2013-09-12 23:06:00,56.7,46.3,30.12,North,352,1.6,2.3,68,0.00,CLR,,0.00,WeatherDisplay:10.37,2013-09-13 04:06:00,
2013-09-12 23:07:00,56.6,46.5,30.12,WNW,296,2.3,4.6,69,0.00,CLR,,0.00,WeatherDisplay:10.37,2013-09-13 04:07:00,
2013-09-12 23:10:00,56.5,46.4,30.12,North,0,2.9,5.8,69,0.00,CLR,,0.00,WeatherDisplay:10.37,2013-09-13 04:10:00,
2013-09-12 23:11:00,56.4,46.4,30.12,North,11,3.5,6.9,69,0.00,CLR,,0.00,WeatherDisplay:10.37,2013-09-13 04:11:00,
2013-09-12 23:13:00,56.3,46.3,30.12,North,359,3.8,5.2,69,0.00,CLR,,0.00,WeatherDisplay:10.37,2013-09-13 04:13:00,
2013-09-12 23:15:00,56.3,46.3,30.12,ENE,62,2.5,4.0,69,0.00,CLR,,0.00,WeatherDisplay:10.37,2013-09-13 04:15:00,
2013-09-12 23:16:00,56.3,46.3,30.12,NNE,27,2.6,4.6,69,0.00,CLR,,0.00,WeatherDisplay:10.37,2013-09-13 04:16:00,
2013-09-12 23:18:00,56.2,46.2,30.12,ENE,61,1.8,3.5,69,0.00,CLR,,0.00,WeatherDisplay:10.37,2013-09-13 04:18:00,
2013-09-12 23:19:00,56.2,46.2,30.12,WSW,246,2.7,3.5,69,0.00,CLR,,0.00,WeatherDisplay:10.37,2013-09-13 04:19:00,
2013-09-12 23:20:00,56.2,46.2,30.12,NNW,340,3.5,5.8,69,0.00,CLR,,0.00,WeatherDisplay:10.37,2013-09-13 04:20:00,
2013-09-12 23:21:00,56.2,46.2,30.13,ENE,68,2.0,8.1,69,0.00,CLR,,0.00,WeatherDisplay:10.37,2013-09-13 04:21:00,
2013-09-12 23:23:00,56.1,46.1,30.12,NNE,14,2.9,8.2,69,0.00,CLR,,0.00,WeatherDisplay:10.37,2013-09-13 04:23:00,
2013-09-12 23:25:00,56.1,46.1,30.13,WNW,302,1.6,8.1,69,0.00,CLR,,0.00,WeatherDisplay:10.37,2013-09-13 04:25:00,
2013-09-12 23:26:00,56.1,46.1,30.13,NE,34,1.9,3.5,69,0.00,CLR,,0.00,WeatherDisplay:10.37,2013-09-13 04:26:00,
2013-09-12 23:27:00,56.0,46.0,30.13,NE,44,1.8,2.3,69,0.00,CLR,,0.00,WeatherDisplay:10.37,2013-09-13 04:27:00,
2013-09-12 23:30:00,56.0,46.0,30.13,NNW,339,3.3,6.9,69,0.00,CLR,,0.00,WeatherDisplay:10.37,2013-09-13 04:30:00,
2013-09-12 23:31:00,55.9,45.9,30.13,ENE,68,1.5,4.6,69,0.00,CLR,,0.00,WeatherDisplay:10.37,2013-09-13 04:31:00,
2013-09-12 23:32:00,55.9,45.9,30.13,ENE,68,1.6,4.6,69,0.00,CLR,,0.00,WeatherDisplay:10.37,2013-09-13 04:32:00,
2013-09-12 23:35:00,55.9,45.9,30.13,SSE,160,1.3,3.5,69,0.00,CLR,,0.00,WeatherDisplay:10.37,2013-09-13 04:35:00,
2013-09-12 23:36:00,55.9,45.9,30.13,North,0,1.3,4.3,69,0.00,CLR,,0.00,WeatherDisplay:10.37,2013-09-13 04:36:00,
2013-09-12 23:37:00,55.9,45.9,30.13,NNE,18,1.9,4.0,69,0.00,CLR,,0.00,WeatherDisplay:10.37,2013-09-13 04:37:00,
2013-09-12 23:40:00,55.8,45.8,30.13,NW,318,2.2,5.8,69,0.00,CLR,,0.00,WeatherDisplay:10.37,2013-09-13 04:40:00,
2013-09-12 23:42:00,55.7,45.7,30.13,NE,52,1.7,4.6,69,0.00,CLR,,0.00,WeatherDisplay:10.37,2013-09-13 04:42:00,
2013-09-12 23:43:00,55.7,45.7,30.13,NNW,337,0.7,2.3,69,0.00,CLR,,0.00,WeatherDisplay:10.37,2013-09-13 04:43:00,
2013-09-12 23:45:00,55.6,45.6,30.14,North,354,5.0,8.1,69,0.00,CLR,,0.00,WeatherDisplay:10.37,2013-09-13 04:45:00,
2013-09-12 23:47:00,55.6,45.6,30.14,NNE,23,3.9,6.1,69,0.00,CLR,,0.00,WeatherDisplay:10.37,2013-09-13 04:47:00,
2013-09-12 23:48:00,55.6,45.6,30.14,NW,313,4.0,6.9,69,0.00,CLR,,0.00,WeatherDisplay:10.37,2013-09-13 04:48:00,
2013-09-12 23:51:00,55.5,45.5,30.14,North,360,2.8,5.2,69,0.00,CLR,,0.00,WeatherDisplay:10.37,2013-09-13 04:51:00,
2013-09-12 23:52:00,55.5,45.5,30.14,North,360,2.1,6.9,69,0.00,CLR,,0.00,WeatherDisplay:10.37,2013-09-13 04:52:00,
2013-09-12 23:53:00,55.5,45.5,30.14,NE,41,2.4,3.9,69,0.00,CLR,,0.00,WeatherDisplay:10.37,2013-09-13 04:53:00,
2013-09-12 23:54:00,55.5,45.5,30.14,ENE,59,3.0,4.6,69,0.00,CLR,,0.00,WeatherDisplay:10.37,2013-09-13 04:54:00,
2013-09-12 23:57:00,55.4,45.4,30.14,ENE,65,2.7,6.9,69,0.00,CLR,,0.00,WeatherDisplay:10.37,2013-09-13 04:57:00,
2013-09-12 23:58:00,55.4,45.4,30.14,NE,54,1.2,3.5,69,0.00,CLR,,0.00,WeatherDisplay:10.37,2013-09-13 04:58:00,
2013-09-12 23:59:00,55.3,45.3,30.13,ESE,104,2.5,5.0,69,0.00,CLR,,0.00,WeatherDisplay:10.37,2013-09-13 04:59:00,